GFSCGP_sfc_wetblb_000.txt.gz
Wetbulb
38.29 36.47 34.76 35.88 35.90 35.95 32.91 30.08 30.00 31.84 34.92 33.17 33.65 34.74 38.34 38.42 31.99 32.13 30.62 29.56 30.37 30.69 30.19 30.31 30.24 29.58 28.97 28.88 29.26 29.63 29.78 30.24 29.93 28.57 27.23 27.15 26.37 27.30 27.20 28.11 29.68 29.38 29.26 29.35
36.16 34.60 37.37 37.66 36.01 34.28 31.49 29.27 29.64 32.47 32.74 32.81 32.61 32.40 36.21 38.33 34.77 33.96 33.92 30.91 30.92 30.68 28.51 29.87 28.86 28.08 28.36 28.85 28.95 29.01 29.38 29.42 29.60 28.59 28.01 27.28 26.26 26.31 26.79 27.58 27.31 28.02 28.63 28.04
34.70 36.62 38.21 36.91 33.40 32.52 30.04 28.69 28.66 30.54 30.83 30.60 28.34 28.48 29.46 34.11 34.81 35.00 34.29 34.95 32.66 31.15 29.60 28.90 28.24 27.11 26.99 27.45 27.73 28.77 28.94 28.71 28.67 28.25 27.75 26.63 26.27 25.13 23.66 24.08 24.25 25.77 27.14 27.27
35.91 36.44 35.95 32.71 32.87 33.39 29.12 31.68 30.08 29.15 27.02 23.73 29.42 25.02 27.50 32.75 34.07 32.60 33.75 31.54 32.01 30.70 30.57 29.81 28.62 26.33 26.31 27.46 27.55 28.10 28.25 27.69 28.79 27.42 25.90 23.62 22.08 21.26 22.10 23.11 23.92 24.59 25.35 25.37
35.98 33.46 32.63 32.24 33.60 33.84 32.14 30.88 28.87 27.67 25.22 21.96 23.08 20.48 24.51 26.43 30.28 35.10 34.68 33.38 32.18 30.46 29.93 29.39 28.71 28.83 27.53 27.99 26.80 26.79 26.60 26.55 27.08 26.19 24.78 22.46 21.73 22.00 22.48 21.84 22.21 22.87 23.83 25.31
34.52 33.51 33.92 34.18 32.38 32.00 32.71 28.93 27.14 23.30 22.23 17.84 23.99 23.46 23.00 25.60 29.90 31.60 31.78 30.78 30.61 28.87 29.21 29.59 29.07 28.09 27.66 26.92 26.38 25.96 25.44 25.31 25.59 24.80 23.54 21.34 19.83 19.98 20.43 20.58 20.43 21.34 22.07 22.96
32.25 32.07 31.39 33.95 31.12 31.58 29.89 28.54 23.21 19.77 16.72 21.76 21.35 19.05 29.46 31.30 31.74 32.92 33.11 29.35 29.00 27.78 27.67 27.38 27.54 26.96 26.44 25.71 25.37 25.86 24.95 23.51 23.88 22.67 21.76 20.40 19.62 18.77 18.14 19.07 19.55 19.33 19.82 20.71
29.71 29.82 31.61 33.37 33.57 31.50 28.13 29.32 24.14 14.72 15.50 23.24 19.18 21.03 28.78 31.28 32.00 28.19 26.86 27.04 28.32 26.08 27.55 28.20 28.29 27.67 26.38 25.83 24.86 24.61 23.72 21.91 21.65 20.70 20.11 19.38 19.20 18.94 18.94 18.72 18.77 18.63 18.55 19.48
29.70 29.58 30.57 31.48 30.73 31.60 27.80 25.96 28.47 22.35 7.82 13.58 24.62 25.41 29.49 31.47 29.49 28.35 26.74 27.36 27.00 25.67 26.73 27.44 27.52 27.15 25.34 24.71 24.40 23.49 21.76 21.52 20.16 19.64 18.95 17.71 17.22 17.41 17.17 17.38 17.94 17.98 18.64 19.98
35.19 31.17 29.17 28.46 29.23 27.11 27.58 29.65 23.73 23.42 16.22 9.18 21.84 23.99 27.96 33.35 30.99 32.10 26.84 26.52 26.16 24.80 25.70 26.64 26.82 26.42 24.99 24.27 23.61 21.75 20.47 19.43 19.49 18.87 17.62 18.40 16.92 16.77 16.71 16.66 16.28 16.92 17.47 18.02
34.78 34.11 28.97 27.41 26.71 26.25 24.10 24.63 24.17 25.31 22.24 17.58 13.05 27.40 29.85 32.64 33.09 33.09 29.45 28.53 26.51 25.28 25.78 26.08 26.68 25.41 24.53 23.20 21.65 19.96 19.14 18.57 18.28 18.20 17.28 16.33 16.15 16.05 15.85 15.51 15.46 15.74 16.43 16.64
33.91 32.04 29.16 29.86 24.90 25.01 26.66 27.43 28.66 24.58 21.30 19.23 19.12 27.61 30.45 32.73 33.29 30.98 29.22 28.56 25.94 26.02 25.67 26.27 25.83 23.97 22.39 21.52 20.28 18.80 17.93 16.97 17.44 16.58 15.96 15.28 14.92 14.70 13.90 13.61 14.38 15.43 14.58 15.52
34.00 29.99 27.67 27.62 25.55 25.02 24.06 26.90 27.41 26.59 23.66 21.12 19.85 26.78 29.57 29.50 28.83 26.77 27.44 27.22 25.26 24.43 22.82 24.15 23.75 23.11 21.79 20.37 18.94 17.02 16.19 15.82 16.12 14.98 13.85 13.50 13.05 12.71 12.67 12.79 13.15 13.58 13.22 13.25
39.97 31.87 28.90 28.44 29.17 27.51 23.63 25.32 27.15 29.15 24.59 27.04 26.79 29.97 35.16 36.56 37.37 38.89 32.94 25.84 25.32 24.91 24.10 24.40 24.15 22.04 20.97 19.95 17.22 15.43 14.72 14.88 14.36 13.52 11.85 11.48 11.82 12.23 11.36 11.60 11.74 11.41 11.31 10.46
35.30 31.39 32.91 33.65 35.07 26.52 27.07 27.69 27.71 24.41 28.07 25.77 29.86 29.93 33.99 36.64 37.69 38.97 39.68 33.83 25.53 23.21 23.23 23.86 23.27 20.93 18.87 17.51 15.92 14.99 12.87 13.26 12.71 11.19 10.16 9.96 11.22 10.91 10.67 9.98 10.12 9.52 9.13 8.86
29.80 30.16 31.71 30.37 32.43 29.01 27.86 31.35 31.77 26.86 28.50 27.87 30.00 30.37 38.51 40.11 40.80 38.96 38.63 33.44 26.02 23.57 23.97 24.51 24.24 21.97 20.42 20.16 15.50 17.61 12.69 12.34 11.99 8.54 9.73 10.10 9.26 9.00 8.00 7.83 7.39 6.43 6.65 6.20
26.04 27.11 21.12 26.07 27.13 25.47 23.07 29.01 32.44 33.54 33.98 31.02 25.98 31.89 37.43 36.67 36.91 37.12 36.14 28.60 26.71 25.16 24.47 23.82 23.10 22.28 21.09 18.41 18.06 11.86 10.76 10.12 9.25 9.69 7.88 6.74 6.79 5.52 5.38 5.01 4.33 3.81 3.38 4.43
26.56 26.01 28.82 26.53 20.22 19.16 31.99 36.33 32.26 32.12 33.92 35.38 35.28 36.47 37.81 38.00 38.65 29.04 31.14 29.39 26.10 25.20 24.53 23.73 22.22 18.30 16.85 13.40 11.77 10.70 10.72 9.33 9.05 7.27 5.27 4.97 4.56 2.93 2.87 2.09 1.20 1.78 3.26 4.35
34.45 29.13 26.41 24.88 24.33 28.26 30.68 29.37 27.48 26.62 30.60 35.88 33.18 35.99 36.80 37.31 26.78 32.66 28.10 28.71 28.41 25.20 24.75 23.66 19.64 15.23 13.08 11.03 10.28 9.28 9.08 8.01 6.50 4.67 4.08 3.68 2.56 -0.23 -0.67 -3.08 -0.52 1.34 2.99 2.23
34.09 33.73 30.56 27.92 22.82 20.52 30.33 32.97 27.97 28.95 26.53 38.19 37.26 35.86 34.88 28.05 26.72 33.48 28.06 24.33 23.06 23.53 20.94 16.88 15.25 13.09 11.28 8.98 9.44 8.61 7.11 5.59 4.11 3.12 2.49 2.12 1.08 -2.76 -3.60 -1.70 -1.36 1.80 0.85 3.09
26.06 28.10 26.18 27.53 26.24 28.38 35.09 24.05 27.98 23.43 30.36 34.51 37.79 36.92 35.64 28.73 33.87 27.40 22.85 20.57 20.53 18.94 16.05 14.27 12.99 10.66 9.46 8.61 8.13 6.98 5.58 3.67 2.74 1.64 0.42 -0.08 -1.30 -3.75 -3.73 -1.28 -0.20 -0.51 0.53 2.60
28.75 26.07 26.21 26.42 25.09 23.77 33.12 25.55 28.77 36.11 39.96 36.08 30.68 30.42 30.37 31.05 23.69 21.45 20.68 18.21 15.99 13.83 14.15 12.16 9.69 8.30 8.18 7.92 7.04 5.48 4.44 2.75 1.41 -0.90 -2.93 -5.01 -6.74 -6.15 -1.16 -3.82 -2.70 -0.96 -0.14 0.49
29.55 32.99 31.63 31.35 30.01 34.63 33.62 38.50 39.44 39.95 40.06 36.84 29.64 28.59 31.09 26.35 23.39 20.92 18.58 16.75 15.37 13.97 12.75 11.95 9.05 6.60 5.91 5.89 5.46 4.64 1.71 1.27 -1.45 -7.96 -9.25 -12.42 -6.27 -3.43 -2.73 -4.14 -2.59 -1.40 0.40 1.66
34.27 38.15 33.42 33.94 35.28 35.11 33.86 36.60 40.44 40.96 38.06 38.20 29.98 27.88 28.01 25.30 22.66 20.77 18.11 16.28 14.19 13.54 11.19 9.55 7.19 4.76 2.10 2.88 1.94 1.16 -0.33 -2.16 -11.20 -10.79 -5.72 -2.96 -4.04 -4.59 -2.71 -0.93 0.45 -0.83 1.23 2.25
36.23 36.09 34.36 34.11 36.79 38.38 39.41 40.32 39.26 35.07 31.27 29.76 27.69 28.10 28.13 26.31 22.76 21.14 18.29 15.07 14.57 12.68 10.19 9.65 8.20 5.92 2.39 1.07 -1.86 -2.71 -4.78 -8.60 -8.87 -6.31 -3.27 -5.32 -6.29 -7.52 -3.96 -0.99 -2.15 2.36 5.08 9.17
38.21 36.10 33.38 32.76 38.48 38.04 38.84 41.69 41.78 37.53 33.21 30.45 29.12 25.73 27.21 27.01 23.19 20.89 18.69 16.59 14.14 11.17 9.46 8.74 7.57 4.74 1.94 0.57 -2.80 -6.72 -9.58 -11.10 -12.52 -6.24 -6.31 -7.24 -6.33 -6.17 -4.10 -4.21 -3.56 4.53 8.83 10.87

GFSCGP_sfc_wetblb_003.txt.gz
Wetbulb
38.19 36.57 34.51 36.55 36.48 35.33 34.21 32.60 32.85 33.77 35.39 34.38 34.61 35.25 38.50 40.94 35.22 35.80 34.14 32.37 32.61 33.14 35.28 32.25 32.33 32.24 31.88 32.20 32.12 32.59 32.70 33.34 33.44 32.69 31.58 31.11 30.83 31.63 31.84 32.26 32.56 31.72 31.62 31.44
35.81 34.67 37.61 37.67 35.81 34.79 32.68 31.41 31.35 33.36 33.33 32.97 32.59 33.08 37.57 39.21 39.68 40.88 37.34 33.88 33.32 33.25 30.51 30.79 31.39 30.92 31.17 31.72 31.91 31.60 32.10 32.27 32.48 31.66 31.18 30.86 30.54 30.52 30.97 31.42 31.06 30.26 30.46 29.80
33.49 35.27 37.06 37.07 33.23 32.95 31.39 30.61 30.19 32.00 31.44 31.34 29.23 29.36 30.76 34.93 35.97 36.69 36.17 36.80 34.91 33.74 31.52 30.50 30.32 30.20 30.83 30.91 31.06 31.35 31.43 31.25 31.46 31.16 30.46 29.51 29.18 28.87 28.66 29.35 28.87 28.99 28.83 28.70
34.91 35.74 36.38 33.33 33.50 33.72 30.63 32.74 31.39 30.26 28.86 25.95 30.25 27.18 29.28 34.20 35.51 35.57 35.64 33.90 35.47 33.61 33.41 31.62 30.91 30.02 30.09 30.69 31.54 31.48 31.01 30.51 30.62 30.06 28.76 27.09 26.14 25.60 26.89 27.07 27.54 27.56 27.94 27.48
34.63 32.99 32.28 32.49 33.98 34.50 32.70 31.62 30.56 29.42 27.23 24.21 25.50 22.52 29.17 28.22 31.39 36.34 37.41 34.94 34.82 34.17 33.29 31.36 30.94 31.34 30.68 30.94 30.36 30.61 30.01 29.09 29.44 29.07 28.07 26.62 25.02 25.32 25.88 25.34 25.09 25.47 26.16 26.78
34.29 33.80 34.78 35.37 32.13 32.10 32.84 30.28 28.35 24.58 23.80 18.95 27.57 27.05 27.07 28.18 32.12 34.99 35.39 35.60 35.39 32.56 31.78 31.96 31.93 31.80 30.45 30.24 29.98 29.28 28.39 27.94 28.28 27.59 26.56 24.93 23.37 23.05 22.84 23.09 22.63 23.54 24.28 24.62
31.22 31.65 31.91 33.77 32.15 32.11 30.64 29.74 23.95 21.48 18.82 22.78 22.06 21.12 31.66 32.42 33.10 35.72 37.13 35.68 33.43 32.50 30.01 30.39 29.94 29.31 30.16 28.67 28.75 28.49 27.46 26.12 26.51 25.67 24.52 23.65 22.75 21.91 21.21 21.41 21.51 21.22 21.87 22.43
29.98 31.08 31.18 33.18 34.97 32.72 28.98 30.52 25.73 17.71 17.25 26.91 19.05 20.99 31.14 32.61 36.59 33.21 32.22 31.71 30.22 30.51 29.48 29.86 29.90 29.67 30.24 28.87 28.38 28.39 26.60 24.98 24.43 23.53 22.94 22.44 21.58 21.41 21.00 20.75 20.42 20.07 20.06 20.71
29.44 30.02 30.07 31.38 31.19 32.63 27.91 26.26 29.61 22.43 8.84 17.16 27.16 28.88 31.48 32.64 32.27 30.93 30.22 28.64 30.01 30.36 28.40 28.97 29.39 30.02 29.94 28.88 27.96 27.26 25.29 24.28 22.89 22.34 21.67 20.51 20.14 19.78 19.16 19.20 19.32 19.21 19.68 20.29
35.55 31.07 30.20 28.66 29.34 27.56 28.86 30.41 25.04 24.51 18.71 12.47 24.28 28.42 31.46 31.37 33.63 33.83 32.19 30.86 31.86 30.63 27.78 28.08 28.96 29.40 29.80 29.18 27.55 26.21 24.36 22.93 22.14 21.16 20.14 20.37 18.97 18.68 18.42 18.00 17.58 17.71 18.09 18.41
35.69 35.27 29.18 28.37 27.23 26.89 25.47 25.71 25.32 26.82 24.03 18.91 17.17 29.03 31.40 33.44 34.40 34.63 35.29 32.55 32.33 31.45 28.04 27.77 28.40 29.00 29.06 27.66 25.83 23.73 21.96 20.92 20.34 20.01 19.08 18.01 17.62 17.32 16.92 16.52 16.40 16.39 16.85 16.92
34.92 33.25 30.20 25.72 25.46 26.46 26.93 29.49 29.96 25.56 22.85 20.75 20.59 28.54 33.70 34.72 34.81 34.67 34.62 32.80 32.15 30.55 28.57 27.46 27.57 27.87 26.62 26.29 23.66 21.72 20.22 19.81 19.43 18.44 17.39 16.62 16.13 15.69 14.89 14.86 15.32 15.55 14.73 15.32
35.23 31.26 25.33 29.02 25.58 25.90 25.79 26.79 28.97 27.04 24.59 27.30 21.12 27.97 35.66 34.15 33.73 32.78 32.26 30.68 31.13 30.32 27.13 25.26 25.86 25.71 26.45 24.64 22.48 19.57 18.61 18.37 17.82 16.67 15.47 14.73 14.00 13.65 13.63 13.47 13.51 13.59 13.17 12.75
40.13 32.38 31.48 29.02 30.97 27.75 24.10 24.69 28.02 29.21 27.40 27.70 27.66 30.98 35.93 37.99 36.85 35.79 32.99 29.32 31.14 29.40 27.70 25.15 25.18 25.47 26.44 23.64 20.66 18.05 17.33 17.25 15.89 14.74 13.40 12.61 12.77 12.88 12.04 12.10 11.83 11.35 11.36 10.21
35.85 31.71 33.73 34.87 35.42 29.48 27.53 28.14 28.64 26.20 28.75 26.99 30.93 30.32 34.65 37.77 38.43 39.27 40.19 40.07 35.07 28.17 25.06 24.94 24.62 25.13 23.10 21.39 19.42 17.33 15.76 14.86 13.87 12.43 11.45 11.27 11.90 11.40 11.16 10.45 10.73 9.90 9.55 9.11
32.32 30.76 31.69 31.84 33.83 29.64 28.78 30.09 32.52 30.98 30.64 28.78 30.02 29.85 38.36 40.19 40.21 38.97 39.43 39.11 38.35 35.69 28.25 25.87 25.57 24.51 22.17 22.15 17.74 17.89 14.03 13.20 12.77 10.79 10.94 10.71 9.82 9.41 8.92 8.77 8.12 7.30 7.47 6.87
30.14 30.16 28.99 26.77 31.42 26.81 23.61 29.94 33.08 33.86 35.07 33.12 28.61 33.16 37.27 36.55 36.96 37.25 38.08 38.56 37.91 36.88 28.53 25.45 24.92 24.02 23.11 21.66 19.68 14.41 12.97 11.83 10.64 11.27 9.40 7.75 7.31 6.45 6.37 6.06 5.50 5.09 4.37 5.00
33.11 30.78 30.77 26.50 27.44 19.71 31.00 35.57 35.18 32.56 33.56 34.51 35.16 36.69 38.24 38.37 39.60 39.88 35.51 37.45 36.69 33.55 27.84 25.62 25.11 23.82 22.87 19.28 15.39 12.93 11.24 11.48 10.87 8.71 6.35 6.10 5.58 4.17 4.13 3.53 2.99 2.97 4.08 4.34
36.73 33.25 28.45 25.10 25.21 28.96 30.42 31.60 29.13 29.35 30.72 36.77 35.26 36.24 37.73 38.52 33.36 35.31 34.12 34.83 36.49 36.55 28.94 26.01 24.78 22.93 17.03 15.23 13.21 11.71 10.79 10.64 9.24 6.76 5.90 5.04 3.98 1.47 0.90 -1.90 0.82 2.46 3.11 2.88
35.55 35.04 29.90 28.07 22.73 20.78 30.20 35.82 34.33 30.14 26.27 37.70 37.53 37.33 37.21 33.36 28.91 35.41 37.56 33.81 30.87 28.16 25.56 23.46 20.41 17.08 15.19 12.01 12.32 11.30 9.50 8.44 6.36 5.76 5.05 3.78 2.65 -1.53 -2.23 -0.37 -0.57 2.12 0.49 2.56
26.17 29.66 27.15 27.23 25.44 28.34 34.17 31.98 31.80 24.51 29.75 39.32 38.04 37.77 37.46 33.49 36.98 38.73 26.00 23.45 24.15 23.12 20.60 19.14 16.85 15.51 13.19 11.60 11.94 10.52 8.69 7.09 6.14 4.04 2.66 1.79 0.33 -2.30 -2.82 -1.59 -0.56 -0.61 -0.57 2.20
29.44 26.26 26.40 28.35 25.44 23.02 36.30 31.75 29.40 36.64 40.30 40.05 39.49 36.73 34.55 35.56 37.77 29.95 24.37 21.17 19.05 17.12 17.21 16.57 14.71 11.76 10.92 11.91 11.31 8.93 7.46 5.29 3.49 1.85 0.64 -1.55 -3.65 -4.10 -0.63 -6.32 -3.65 -2.26 -1.02 -0.63
29.61 33.00 31.84 31.07 29.77 34.10 36.71 37.99 39.27 40.92 39.77 40.24 39.80 36.60 36.91 36.03 33.87 26.51 23.22 19.15 17.56 17.07 15.46 15.47 12.53 9.42 9.26 10.71 11.40 8.33 4.69 4.02 0.57 -2.16 -3.94 -3.74 -3.08 -2.52 -2.92 -6.68 -3.26 -2.36 -0.44 1.16
35.25 38.43 33.74 33.91 36.75 33.90 34.07 37.83 40.01 40.71 39.06 40.35 39.95 36.55 33.14 35.16 31.94 25.11 21.43 18.92 17.08 15.58 14.19 12.63 10.15 8.15 6.49 7.47 9.24 6.15 3.85 1.50 -5.25 -4.67 -1.18 0.08 -1.07 -2.80 -2.26 -1.10 0.40 -1.84 1.32 3.07
35.74 35.03 34.54 33.90 36.16 38.38 39.30 39.36 39.22 38.51 37.64 32.97 34.74 36.00 33.22 33.47 29.97 27.00 21.40 18.46 17.17 15.16 13.89 12.03 11.43 8.77 5.48 4.25 1.74 1.80 0.55 -2.31 -3.66 -1.63 -0.39 -1.70 -1.94 -5.26 -2.61 -0.58 -2.01 1.98 5.53 9.66
35.31 33.23 31.67 31.71 38.51 38.08 38.93 40.70 40.91 39.78 39.84 40.27 38.77 36.82 31.02 33.89 34.36 26.73 22.31 19.04 17.10 14.75 12.72 12.26 10.71 7.53 4.21 2.27 -0.18 -2.47 -3.02 -1.78 0.03 -1.23 -2.27 -3.91 -3.82 -4.79 -3.47 -4.22 -3.36 3.73 8.52 11.41

GFSCGP_sfc_wetblb_006.txt.gz
Wetbulb
46.01 44.88 42.98 45.56 46.20 45.59 43.13 41.95 42.08 45.10 42.07 41.29 41.95 41.88 43.84 46.19 46.04 46.12 46.61 47.51 45.60 43.22 44.85 43.93 41.84 40.46 39.30 39.87 39.43 39.33 39.13 39.76 39.70 39.29 38.69 38.55 38.56 38.84 38.37 38.71 37.14 36.85 36.19 35.75
43.44 41.39 46.67 44.19 43.55 42.27 41.90 41.86 42.35 43.82 39.95 38.85 40.43 39.00 42.47 44.11 44.93 46.11 46.50 47.62 47.11 44.04 43.32 41.98 39.93 39.05 38.56 38.79 38.75 38.82 38.82 39.15 38.93 38.51 37.65 37.67 37.18 37.38 37.19 37.48 36.83 36.39 35.19 34.82
42.45 44.55 41.86 42.33 41.06 40.16 41.22 41.09 42.47 40.05 39.09 38.47 36.73 38.37 39.16 42.23 42.22 43.44 44.83 46.04 46.39 44.31 42.51 40.29 38.40 38.25 37.98 37.70 38.15 38.29 38.47 38.22 38.03 37.33 36.22 35.37 35.26 35.00 34.87 35.77 36.01 35.43 34.35 33.78
42.43 43.55 41.81 41.08 41.09 41.97 39.59 42.45 40.41 38.21 37.27 36.33 37.41 33.53 40.51 41.37 40.92 42.65 45.70 45.32 43.54 43.12 42.13 40.53 38.34 37.36 37.19 38.16 38.95 38.33 37.83 36.97 36.72 36.35 35.01 34.26 34.38 34.11 35.22 34.56 34.52 34.14 33.93 32.94
42.07 38.76 39.00 39.66 41.54 41.89 40.94 38.36 37.93 36.61 36.54 33.19 37.37 32.15 38.80 36.07 37.98 41.82 45.34 46.84 44.99 44.87 42.63 40.70 38.30 37.67 37.80 38.29 38.16 37.86 37.25 36.28 35.74 35.51 35.10 34.38 33.23 33.63 33.93 32.73 31.92 32.43 32.57 32.49
41.60 40.44 41.00 42.37 36.88 38.28 37.06 37.16 35.70 33.75 34.03 29.93 37.16 34.80 37.48 38.62 39.87 42.19 44.95 44.93 44.32 43.37 42.84 42.17 39.87 38.14 37.32 37.85 37.57 37.27 36.19 35.13 35.08 34.76 34.25 33.38 32.61 32.14 31.12 30.99 30.43 30.92 31.23 31.08
39.11 38.92 38.99 39.39 38.41 37.84 37.60 38.15 34.64 34.04 30.66 31.75 33.48 31.40 36.81 40.91 42.43 42.81 45.04 46.43 43.73 43.37 41.88 40.20 37.35 36.23 36.25 36.17 36.58 36.59 35.62 34.17 34.14 33.63 33.11 32.27 31.58 30.83 29.85 29.66 29.31 28.90 28.89 29.27
37.08 36.01 36.10 39.48 41.84 41.29 36.42 39.30 35.36 29.18 30.90 33.68 28.89 28.97 38.07 41.47 43.39 44.33 41.66 42.00 40.14 40.93 40.90 39.41 37.86 37.01 36.40 35.53 36.03 35.52 35.01 33.84 33.06 32.52 31.75 31.17 30.34 29.55 29.07 28.59 28.04 27.40 27.29 27.85
36.08 37.27 35.94 35.73 37.46 40.42 34.56 33.69 38.86 34.83 24.96 28.17 35.73 39.71 40.42 39.51 39.08 39.38 40.14 40.84 41.30 40.69 39.78 38.93 38.19 37.30 35.87 35.43 35.79 35.63 34.79 33.80 32.25 31.35 30.63 29.32 28.67 27.56 27.15 26.91 26.42 26.24 26.79 26.03
40.56 34.65 35.90 33.17 36.21 34.76 35.01 37.53 31.87 33.91 28.91 27.94 33.51 35.42 36.14 39.04 39.35 39.59 38.72 40.33 42.65 41.77 40.48 38.83 37.32 36.41 36.36 36.24 36.23 35.99 35.19 33.25 31.67 30.43 29.48 28.27 27.19 26.52 25.94 25.39 24.82 25.09 25.25 24.64
40.80 38.26 34.45 34.22 33.33 35.25 31.91 33.14 32.67 33.38 32.37 30.09 28.58 33.71 38.97 39.21 41.00 40.52 41.73 43.47 44.34 42.75 41.28 39.82 37.79 37.35 36.86 36.68 35.71 35.17 34.20 32.14 29.80 28.75 27.71 26.55 25.60 24.72 24.28 23.77 24.05 23.56 23.17 22.82
40.18 37.86 35.10 36.58 33.79 34.11 37.08 36.89 36.26 31.79 30.29 31.35 32.59 33.46 40.71 41.11 42.33 41.51 42.92 42.29 42.97 42.81 43.32 41.59 38.69 36.99 35.59 35.13 34.82 33.48 32.67 29.94 28.87 27.68 26.11 25.03 24.38 23.26 22.75 22.83 22.56 22.00 20.96 21.33
37.77 34.10 31.54 34.16 31.33 31.19 32.46 33.84 35.39 36.99 35.69 31.40 29.23 32.09 42.27 43.02 41.58 41.09 41.78 43.15 41.74 41.56 41.95 39.92 37.70 35.69 35.10 34.55 33.05 32.41 31.04 29.00 27.45 25.48 24.37 23.25 22.57 22.09 21.52 21.12 20.59 19.97 19.60 19.25
41.02 35.35 34.74 31.37 35.18 33.87 31.92 33.27 33.76 34.24 31.02 32.09 32.57 35.27 39.61 41.18 41.12 42.89 42.58 39.76 41.55 42.06 41.50 41.65 38.01 35.57 34.82 33.42 32.34 30.84 28.76 27.79 25.20 23.84 22.96 22.29 21.78 20.80 19.99 19.25 18.57 17.88 17.85 16.70
38.45 32.34 34.97 36.47 37.97 37.74 36.31 35.58 34.51 31.20 33.48 31.64 35.14 35.88 39.20 41.04 41.80 43.01 44.04 43.54 43.29 43.24 39.85 40.45 37.72 35.38 33.73 32.31 30.46 29.16 27.80 25.22 23.80 22.37 21.58 21.07 20.26 18.83 17.92 17.08 16.92 16.22 15.61 15.30
35.91 32.39 34.08 31.18 35.11 34.70 32.67 35.41 36.38 36.01 35.53 35.35 35.02 33.87 40.51 41.95 42.90 42.01 42.34 42.35 41.51 42.25 42.76 39.71 35.38 33.12 31.33 30.43 28.76 26.31 25.64 23.07 22.07 21.31 20.36 18.99 17.21 16.04 15.48 14.84 13.92 13.37 13.45 13.63
33.35 32.80 31.50 28.14 33.28 32.70 28.28 32.00 33.73 35.20 37.49 37.09 32.78 37.84 41.79 40.85 41.02 41.43 42.41 42.32 40.60 41.34 42.02 41.79 34.86 32.52 30.59 28.73 27.31 25.13 23.16 21.00 19.14 18.70 17.30 15.32 14.88 13.29 13.10 12.04 11.36 11.32 11.37 11.79
34.95 32.89 32.52 28.55 31.44 21.76 33.35 39.69 38.17 35.92 37.17 38.79 38.63 40.09 41.24 41.62 42.60 42.94 44.08 42.41 41.75 42.09 41.89 39.42 35.78 33.96 30.79 29.58 26.68 24.66 20.07 18.43 17.67 16.90 13.39 13.38 12.20 11.18 10.66 9.74 9.63 10.11 11.19 10.97
38.41 34.75 30.09 26.98 26.84 31.54 31.77 36.01 34.70 33.25 33.52 39.17 38.02 39.10 40.59 41.69 40.88 41.16 43.38 43.62 43.00 43.63 44.17 43.66 37.00 33.57 29.46 27.11 24.67 19.71 17.55 17.40 16.24 13.93 13.13 12.18 11.04 8.93 8.34 6.14 8.10 9.44 10.03 9.82
36.64 36.89 31.19 29.54 24.74 23.22 34.21 38.68 40.43 36.93 28.23 40.18 39.57 38.63 38.82 37.90 33.60 38.83 44.32 43.10 42.30 42.05 40.46 32.24 30.24 28.30 25.62 22.03 18.86 17.34 16.27 15.71 14.12 14.03 12.90 11.51 9.53 6.27 5.59 7.17 6.88 9.12 7.86 8.55
30.67 31.13 27.66 28.09 26.80 30.44 37.59 37.12 37.23 26.12 31.57 40.97 40.96 40.37 39.42 37.33 39.60 42.47 42.76 38.16 33.72 31.57 28.58 28.05 25.90 22.39 21.55 18.39 18.52 17.35 15.38 14.46 14.98 12.78 10.34 8.48 7.82 5.81 5.76 5.42 6.89 6.28 6.34 7.70
32.01 29.07 27.98 28.85 25.96 24.01 40.33 39.36 32.47 39.47 42.91 42.27 42.21 41.14 38.29 39.64 40.54 40.27 41.22 30.98 27.64 25.18 23.67 22.87 21.09 19.33 16.97 18.44 18.82 15.73 14.13 13.12 10.50 9.19 8.16 6.47 4.38 6.70 6.18 2.04 4.43 4.51 5.73 6.27
30.76 35.83 33.29 33.30 33.10 40.21 42.16 40.85 42.62 43.09 42.67 42.96 42.20 42.05 40.53 39.40 39.22 39.34 37.22 28.40 25.66 24.36 22.39 21.24 18.99 15.35 16.22 17.36 18.32 14.99 11.00 9.11 7.74 6.65 3.93 3.38 3.65 4.63 4.13 3.48 4.65 7.84 6.98 7.94
35.05 39.53 33.12 34.72 38.15 39.27 39.75 42.61 42.97 44.01 41.74 42.47 42.77 42.44 40.76 39.78 39.76 36.79 34.24 28.70 23.33 21.62 19.45 19.09 15.89 14.16 13.60 15.60 15.91 11.47 8.94 7.46 4.16 3.66 4.18 4.29 4.54 4.61 4.02 6.49 7.36 6.74 8.40 8.34
31.88 31.93 30.95 30.54 33.33 35.93 39.58 40.78 41.87 41.23 40.50 38.58 39.15 38.70 39.88 39.82 37.39 37.94 36.49 31.21 25.68 21.88 19.45 17.44 15.86 14.38 12.65 12.92 8.80 8.10 6.09 3.84 4.17 5.36 5.43 5.29 5.22 4.88 4.90 5.82 6.10 7.60 9.65 10.89
30.03 29.08 27.77 28.57 36.07 35.56 36.42 38.71 38.94 37.72 38.81 40.82 40.67 40.64 41.15 40.50 37.94 38.48 35.16 33.45 25.63 20.55 17.87 16.29 15.89 12.28 10.26 8.64 6.85 5.23 3.59 5.00 5.66 4.68 4.15 4.48 4.40 4.41 4.48 4.88 5.76 5.82 8.13 10.65

GFSCGP_sfc_wetblb_009.txt.gz
Wetbulb
48.70 45.20 43.31 46.10 47.56 46.92 45.57 43.80 42.76 45.19 47.57 44.53 44.11 44.36 46.29 48.53 48.59 48.41 48.70 49.21 49.39 50.09 51.83 49.40 49.03 48.49 46.43 44.96 43.34 42.82 41.85 42.10 42.29 41.49 40.43 40.23 39.45 40.74 40.39 40.59 39.71 39.08 38.40 37.69
44.95 41.76 46.60 47.65 46.16 45.43 45.00 42.60 42.41 45.76 47.28 42.30 43.11 42.59 45.82 47.35 47.69 48.23 48.00 48.34 49.03 50.22 49.80 47.80 47.49 46.26 44.87 43.10 43.02 42.64 41.82 41.60 41.68 41.84 41.79 41.26 40.74 40.45 40.12 40.08 39.14 38.75 37.64 37.16
43.03 45.29 45.98 44.95 44.90 42.76 43.02 41.73 42.70 42.93 45.99 43.26 40.86 40.17 43.23 46.25 46.62 47.14 47.20 47.93 48.66 49.19 49.13 46.75 45.45 44.04 43.94 42.40 42.55 41.88 41.92 41.63 41.31 41.23 40.34 38.42 37.90 37.30 36.89 37.48 37.99 38.05 37.44 36.50
44.57 47.09 45.07 43.59 42.05 43.79 39.92 45.42 44.54 42.66 40.96 37.63 41.62 34.43 42.19 44.33 45.05 45.54 45.48 46.94 48.61 47.94 48.37 46.84 44.78 43.07 42.64 42.54 43.34 42.36 41.77 41.33 41.08 40.49 38.38 37.07 36.16 35.76 37.65 38.49 38.44 37.18 36.85 35.73
42.68 43.97 41.31 41.15 42.60 45.12 42.19 41.83 41.84 41.87 39.75 39.69 39.35 36.54 40.04 39.84 40.50 42.44 45.39 47.54 49.75 49.07 47.30 45.90 44.12 42.77 42.84 42.65 42.31 42.05 41.37 40.68 40.33 39.49 38.12 37.32 36.98 37.98 38.07 36.59 35.53 35.63 35.99 35.57
42.68 43.37 43.51 44.14 40.57 42.17 41.57 40.16 39.22 38.74 38.30 32.75 38.97 38.44 38.51 41.39 41.65 43.66 45.99 47.37 49.16 47.88 46.74 45.91 44.82 43.74 42.74 42.69 41.50 41.12 40.00 39.27 39.38 38.41 37.69 37.15 36.66 36.38 35.20 34.59 33.88 34.43 34.71 34.41
42.57 41.86 43.34 42.30 40.27 40.19 40.15 39.56 35.24 34.62 33.00 31.87 41.43 37.16 40.20 44.37 44.20 44.79 44.96 46.64 48.22 46.99 46.44 45.33 43.17 41.69 41.59 40.83 40.30 40.17 39.58 38.18 38.29 37.24 36.77 36.56 36.37 36.22 34.76 34.58 34.03 33.08 32.65 32.46
38.60 37.04 41.04 41.61 42.16 43.00 38.17 40.57 36.14 30.27 30.97 34.46 34.89 33.42 39.41 45.43 46.05 45.73 45.90 46.32 46.46 46.01 46.31 45.23 43.86 42.05 41.03 40.21 39.52 39.32 38.43 37.94 37.36 36.66 36.19 36.05 35.68 35.10 34.34 33.79 32.76 31.76 31.19 31.27
37.77 37.80 39.07 41.17 41.26 43.58 38.98 34.45 41.67 36.55 34.32 31.51 36.33 40.59 44.97 44.54 43.70 43.93 43.47 44.33 44.79 44.46 44.82 44.54 43.80 42.18 41.35 39.70 38.81 38.65 38.40 37.98 36.86 35.90 35.48 34.77 34.14 33.25 32.22 31.93 31.38 30.52 30.33 29.63
42.03 36.16 41.93 35.41 38.09 38.77 38.34 40.71 34.65 35.71 29.30 28.01 34.16 36.79 37.88 40.48 41.31 42.66 42.44 43.49 45.65 45.70 45.25 44.69 43.83 41.98 41.53 40.69 39.08 38.88 38.66 37.10 36.79 35.32 34.53 33.14 32.31 31.99 31.50 30.74 29.09 28.70 28.84 28.35
42.40 39.60 37.84 35.94 34.80 37.80 34.36 34.76 35.08 35.37 36.53 30.72 29.32 34.71 41.61 42.46 43.08 43.71 44.48 45.16 46.58 46.93 45.92 44.85 43.53 42.32 41.36 40.31 39.27 38.40 37.96 36.81 36.10 34.29 33.53 32.08 30.84 30.32 29.70 28.32 27.98 27.64 27.49 26.50
41.80 38.06 34.07 37.53 42.30 40.28 40.12 38.78 38.41 32.67 31.40 34.25 33.64 33.67 43.58 43.55 43.85 43.74 44.08 45.33 46.81 47.95 47.58 46.68 44.82 42.47 40.61 39.61 39.26 38.39 37.39 36.52 35.68 33.99 32.17 30.44 29.72 28.40 27.26 26.64 26.66 26.53 25.19 24.99
40.00 34.39 30.67 33.27 36.40 34.67 34.92 38.05 38.55 39.16 36.68 32.10 30.12 33.19 43.65 44.32 44.62 44.99 43.56 45.11 45.44 44.67 45.84 46.67 45.46 42.67 41.12 39.77 38.87 38.02 37.02 36.09 34.94 32.42 30.27 28.58 27.75 26.27 25.95 25.92 25.67 24.75 23.54 22.93
41.26 36.68 33.53 30.52 35.07 38.63 35.04 35.72 36.77 36.10 31.78 32.03 32.81 35.54 40.23 42.17 42.84 44.25 45.04 46.02 46.05 45.49 45.47 46.21 44.96 43.59 42.02 39.87 38.62 37.59 36.16 35.57 33.12 30.53 28.27 26.59 25.78 25.19 25.32 24.93 23.84 22.82 22.25 21.14
37.65 31.15 34.14 36.20 37.92 38.71 36.72 36.70 36.58 34.05 34.64 31.28 34.46 35.69 39.61 41.94 42.80 44.25 45.62 45.36 44.64 44.90 45.04 44.71 43.94 44.52 41.85 38.95 37.53 36.07 34.84 33.52 30.79 27.92 26.38 25.27 25.47 25.09 23.97 22.16 21.22 20.64 19.73 19.07
38.07 31.63 33.37 31.18 34.36 34.30 32.30 35.20 36.35 36.18 36.66 36.76 36.99 35.82 42.48 43.49 44.26 43.59 43.96 44.22 43.43 43.70 43.83 43.70 43.44 41.85 39.07 36.63 36.06 33.49 33.60 31.20 28.51 25.84 24.66 24.72 23.38 21.54 20.73 20.31 19.32 18.05 17.31 17.17
33.51 32.70 31.32 27.92 33.65 32.42 28.38 32.81 34.67 35.97 38.63 38.30 33.78 38.83 43.24 42.88 43.22 43.59 44.31 44.83 43.65 43.97 43.37 41.18 42.01 41.29 38.05 36.67 33.83 32.52 31.30 28.78 25.47 24.20 23.57 21.84 20.37 18.60 18.79 17.70 16.20 15.07 15.12 15.82
34.83 32.44 32.49 29.61 31.98 22.24 33.59 39.82 38.65 36.35 38.19 40.12 39.89 41.08 42.72 43.28 44.74 44.28 45.46 44.61 43.65 43.72 42.42 42.07 42.05 41.58 37.41 36.23 33.13 31.36 28.53 24.89 23.25 22.62 20.54 18.97 18.24 16.73 16.31 14.57 13.98 14.17 14.40 14.16
38.96 35.32 31.01 27.57 27.61 31.63 34.41 38.34 36.95 35.37 35.34 40.51 39.56 40.97 42.37 43.29 42.25 41.69 45.07 45.47 44.00 44.40 44.23 44.25 44.44 42.80 36.96 33.38 31.27 27.44 24.59 22.02 21.43 20.44 18.58 17.60 16.75 15.38 13.77 12.66 12.78 13.75 14.00 13.90
37.12 36.89 32.08 30.27 25.76 23.80 34.12 39.61 42.96 41.44 30.52 41.90 41.66 40.87 40.99 41.23 34.62 39.06 44.66 41.98 40.99 41.17 41.67 40.95 37.54 34.34 32.40 30.08 27.75 23.54 20.44 20.15 19.63 19.07 16.92 16.45 15.67 13.53 12.30 12.03 12.43 13.29 12.80 12.17
31.38 31.08 28.44 28.88 27.23 30.56 38.84 40.68 40.30 29.37 33.73 42.64 41.94 41.14 40.79 38.58 40.31 43.35 42.97 40.51 40.57 39.07 35.63 33.46 32.17 29.74 29.30 26.49 23.10 20.53 19.75 18.85 19.67 18.32 15.74 14.14 13.14 12.07 11.90 11.67 11.78 10.73 10.48 11.38
32.67 30.52 28.83 29.33 26.68 24.68 41.52 40.00 34.31 39.93 43.38 43.74 43.86 42.88 41.26 41.84 42.24 41.85 42.62 42.15 37.69 35.43 29.40 29.51 26.56 25.22 24.18 22.90 21.70 20.22 18.66 19.90 17.58 14.75 12.80 11.56 10.63 10.78 9.68 8.37 8.31 8.53 8.80 8.69
30.31 31.65 27.82 31.04 32.02 40.41 40.45 38.70 39.04 41.16 40.99 41.02 39.97 39.48 40.47 40.25 41.04 40.79 39.93 39.39 34.37 33.67 28.37 26.46 24.74 21.90 20.29 21.20 21.94 19.46 19.18 15.44 13.43 11.99 10.34 8.96 8.59 10.42 8.54 5.99 7.66 8.15 9.11 10.58
30.34 33.76 29.38 28.75 32.71 33.19 35.44 37.91 39.41 40.29 36.97 36.90 37.60 38.03 39.39 39.37 39.91 38.31 37.99 37.18 32.61 28.73 26.23 24.08 21.34 18.82 17.80 19.66 21.10 20.19 14.44 13.88 11.53 9.23 8.41 7.62 7.06 7.39 7.05 8.69 8.85 10.14 10.47 10.78
25.96 27.42 25.72 24.82 27.82 31.73 33.15 34.47 35.53 35.73 36.22 35.11 36.20 36.39 36.62 36.67 36.72 38.44 38.74 38.76 37.65 31.32 25.27 22.69 20.26 19.14 17.84 18.85 19.30 13.61 12.92 11.75 10.24 8.84 8.02 7.25 7.80 7.12 7.37 9.52 9.28 10.50 11.46 12.32
26.78 24.26 21.67 20.52 29.32 29.25 30.16 32.49 31.50 30.32 30.91 32.04 31.60 31.60 33.18 34.64 35.46 37.34 38.36 39.87 39.70 32.76 25.02 21.56 20.34 18.72 17.41 17.50 13.42 12.13 10.89 11.64 9.93 8.55 8.36 8.00 7.01 8.16 7.96 7.16 5.70 10.08 11.71 11.74

GFSCGP_sfc_wetblb_015.txt.gz
Wetbulb
41.67 36.31 34.94 39.03 39.76 38.36 36.38 34.79 33.93 39.94 41.99 40.11 40.56 39.78 41.85 43.88 41.21 40.22 42.91 43.89 44.57 44.73 46.81 44.07 45.37 45.34 43.94 40.89 39.56 39.00 38.45 38.81 39.04 37.67 36.11 34.96 35.96 34.22 33.54 34.02 35.21 34.69 34.26 34.22
38.25 34.96 40.75 40.84 40.71 38.96 37.52 35.62 35.29 39.47 40.13 38.71 38.52 38.82 41.78 41.22 42.91 43.89 42.60 43.97 44.99 45.70 42.90 43.26 42.40 42.44 41.87 39.44 39.30 38.71 38.81 38.38 38.97 38.79 38.09 34.90 34.36 33.17 33.62 34.01 34.01 34.38 33.85 33.49
37.64 39.11 43.28 41.69 39.37 38.00 38.13 35.63 36.76 35.97 38.74 37.11 35.14 33.42 37.28 40.90 42.29 44.19 45.29 45.28 45.79 45.20 42.17 40.72 40.25 41.83 41.26 38.91 38.23 38.60 38.51 38.32 38.83 37.90 36.38 33.07 33.03 32.15 31.80 32.02 32.57 33.02 33.35 32.80
37.60 42.15 40.64 38.03 37.27 39.48 35.99 39.08 38.55 37.12 32.31 31.29 33.64 29.53 34.82 38.06 39.45 40.72 43.28 43.85 43.61 40.26 40.94 40.18 40.32 38.10 39.58 39.70 39.06 39.13 38.16 37.72 38.11 37.17 36.73 34.34 34.71 33.75 34.80 35.14 33.02 31.79 32.62 31.76
37.03 36.77 36.25 36.65 39.03 39.39 37.83 37.77 36.20 34.02 32.01 30.30 31.89 29.17 32.76 37.50 36.34 39.49 42.59 43.65 43.99 41.92 40.96 39.70 40.78 41.87 40.71 39.15 38.38 38.49 37.65 37.37 37.74 36.73 37.38 35.64 34.01 34.52 29.33 29.91 31.26 30.27 30.64 30.94
36.66 38.25 38.59 38.44 37.08 38.58 37.90 34.57 33.57 31.59 29.56 26.24 30.41 31.27 32.00 33.01 37.46 38.20 42.09 42.63 43.24 41.86 41.22 41.30 41.31 39.61 38.36 37.18 37.74 37.58 36.86 36.77 37.15 36.69 36.34 35.16 33.97 30.39 28.32 29.58 30.86 30.38 30.07 29.21
33.54 36.14 37.65 39.30 35.14 35.09 34.54 32.04 24.39 22.48 21.23 25.26 32.64 28.86 35.68 37.17 38.16 39.96 41.28 41.76 42.98 39.86 39.13 37.23 37.62 38.12 37.07 35.52 36.37 36.89 36.24 35.72 36.20 36.31 35.25 34.55 33.93 31.80 30.66 30.19 31.15 29.32 28.72 27.27
29.57 30.89 35.09 37.85 38.34 34.44 32.06 34.13 25.55 17.89 23.47 29.89 27.47 25.01 32.27 39.67 41.59 40.95 41.43 42.39 39.86 39.62 39.00 37.92 38.23 38.14 36.84 36.75 35.70 36.58 35.47 35.88 35.55 35.48 34.75 34.28 33.01 32.85 32.44 31.15 31.11 30.59 29.96 28.44
30.64 30.75 35.05 35.33 36.05 37.90 31.97 29.74 35.46 27.60 15.11 20.66 31.73 32.85 37.19 36.93 38.67 38.59 39.12 36.03 38.37 38.72 37.72 37.79 36.08 36.92 36.69 36.44 36.41 36.41 35.89 36.38 35.52 34.93 34.72 33.61 32.79 33.09 31.88 30.22 29.93 29.48 28.45 27.64
36.81 31.66 36.67 34.14 34.81 33.40 33.63 34.80 27.45 27.45 17.97 14.90 29.28 25.67 32.91 36.91 40.16 41.68 35.71 36.88 37.18 37.71 38.01 37.79 37.13 37.18 36.61 37.10 36.94 36.47 36.84 36.11 35.49 34.47 34.35 33.50 32.57 32.77 31.98 29.20 28.58 27.06 26.63 26.07
36.24 34.99 34.59 32.16 30.40 31.62 29.58 30.64 31.69 31.29 28.01 26.28 25.42 30.25 34.39 35.39 35.48 35.82 36.49 36.97 37.15 37.81 37.61 38.41 39.10 38.29 37.67 36.15 35.66 35.89 35.32 34.80 34.21 33.16 33.29 32.53 31.40 30.79 29.37 29.06 27.81 26.47 25.64 24.37
37.29 34.02 28.87 31.83 34.50 33.82 34.48 33.94 34.32 29.27 27.33 27.05 28.72 30.52 41.88 38.51 37.46 37.21 38.52 38.34 37.83 39.18 39.76 38.45 38.10 38.78 35.77 35.67 34.86 35.09 35.13 34.47 34.37 33.96 32.08 31.24 29.15 27.62 27.94 27.41 25.68 24.58 24.45 23.50
38.81 31.88 27.91 29.13 34.23 31.63 31.66 32.96 34.61 34.16 30.66 28.22 25.14 27.75 41.79 41.78 41.48 38.04 36.56 37.36 38.80 39.77 40.63 38.88 37.66 37.58 37.56 36.27 35.97 35.82 35.25 34.65 34.30 32.83 30.15 29.38 27.63 27.18 27.04 25.73 24.02 23.98 22.96 22.21
41.25 33.51 31.19 28.20 32.55 35.41 31.59 33.11 33.30 33.85 29.05 29.64 28.99 30.73 36.06 39.02 40.01 41.55 42.37 43.43 44.17 44.71 39.53 39.87 40.80 39.03 37.10 37.00 36.58 35.83 35.03 34.61 33.43 31.62 30.00 28.79 27.84 27.28 26.35 24.34 23.75 23.15 22.84 21.23
38.80 30.34 32.56 33.84 35.27 35.71 34.31 34.46 34.57 32.29 32.97 29.10 31.55 32.20 35.24 38.01 39.54 40.98 42.36 42.89 42.68 42.87 39.37 39.86 39.80 37.58 37.37 36.94 35.79 35.58 35.51 33.40 32.50 31.09 30.11 29.09 28.00 26.90 24.24 23.03 22.78 22.01 21.17 20.56
38.29 32.37 34.38 31.62 33.74 33.48 31.96 33.84 34.04 33.77 33.81 33.69 34.04 33.79 40.99 42.46 43.35 42.58 43.10 43.35 42.35 42.52 43.03 40.85 39.00 38.84 35.73 35.92 36.47 35.08 34.97 32.50 31.79 31.24 29.57 28.76 25.67 24.14 22.68 22.78 21.79 20.72 19.86 18.99
35.41 32.66 31.94 28.51 32.54 31.79 27.56 32.20 33.21 33.93 35.60 35.20 30.37 35.46 40.39 40.04 40.89 41.81 42.70 43.11 42.50 43.15 43.24 39.66 38.69 37.60 35.61 35.25 35.07 34.34 33.43 31.04 30.34 30.39 28.63 25.84 23.75 22.28 22.34 21.86 20.89 19.90 18.50 18.71
34.98 32.39 31.90 29.37 31.30 22.43 31.50 36.73 36.17 34.59 36.09 37.53 37.50 38.36 40.09 40.80 42.41 43.42 44.11 41.77 42.02 43.31 40.82 38.34 37.16 37.99 35.70 34.48 32.47 34.13 28.28 28.90 29.24 28.82 26.52 23.93 22.77 22.21 21.44 20.59 19.91 18.84 18.21 17.33
37.96 34.95 30.48 27.59 27.23 30.79 31.86 34.09 33.78 32.22 32.35 37.92 36.55 38.50 36.56 35.18 39.24 40.22 38.58 38.06 36.97 36.89 37.97 38.56 37.01 37.04 35.96 34.89 32.62 28.76 27.29 27.75 27.86 26.34 24.80 23.23 22.58 21.72 19.72 18.64 18.13 17.69 17.18 16.87
36.90 37.23 32.68 30.40 25.85 23.29 32.65 34.85 37.18 37.43 28.64 31.23 30.70 29.75 30.31 31.01 26.67 30.68 34.64 37.04 36.49 36.84 36.60 34.24 33.10 33.21 32.47 28.88 26.25 26.60 25.46 25.28 25.32 25.16 24.30 23.00 22.85 21.15 19.24 18.55 17.96 17.23 16.72 16.78
26.61 29.59 27.43 28.09 26.69 28.29 28.84 29.82 34.27 26.49 21.07 28.29 31.04 30.00 28.89 27.19 30.21 33.60 34.60 33.81 34.33 33.80 34.24 35.33 31.73 28.53 27.16 24.55 24.21 23.83 22.46 23.92 23.67 22.46 21.58 20.82 20.60 20.34 19.53 17.61 17.31 16.09 16.01 16.64
21.89 19.59 19.13 21.39 21.89 21.25 29.41 27.22 18.32 24.11 28.91 31.19 27.39 27.45 26.56 27.98 29.10 29.74 30.31 30.49 31.63 31.32 32.33 33.06 30.29 31.47 24.20 23.97 24.81 23.14 22.19 20.93 20.32 19.81 18.93 18.91 19.93 18.85 17.39 15.75 14.64 15.20 15.07 14.05
20.58 19.52 17.53 20.35 17.22 22.47 29.61 26.02 28.72 30.84 28.52 28.00 26.89 25.97 26.41 26.33 27.06 28.23 28.18 29.24 30.49 30.77 30.43 31.77 29.99 31.40 24.27 24.47 25.11 25.41 23.40 21.13 20.09 18.25 17.23 17.76 17.15 16.83 15.68 14.21 13.24 12.75 12.96 12.46
20.46 24.16 18.48 17.21 21.20 22.68 24.97 27.86 28.41 27.57 25.53 26.81 26.64 24.98 25.49 25.06 26.53 26.64 27.72 29.11 29.59 29.48 29.97 31.81 32.13 30.50 28.77 24.84 24.58 25.86 22.33 21.31 18.25 16.45 16.16 15.03 15.20 14.00 14.11 14.01 13.18 12.52 11.49 11.80
18.96 20.80 15.74 16.92 21.10 22.83 24.41 26.19 24.84 24.87 24.93 23.57 22.39 21.84 21.91 23.33 23.67 24.40 24.50 25.41 27.23 28.63 29.50 30.15 30.20 31.05 30.12 27.71 24.34 25.02 21.18 20.79 19.46 18.33 14.60 13.43 14.22 12.95 12.81 13.32 13.01 12.91 14.16 14.79
22.19 19.74 16.49 14.62 23.00 19.16 20.95 22.10 22.80 18.39 18.25 18.67 18.37 18.86 20.18 18.99 18.14 19.14 19.81 21.73 22.77 23.58 25.64 27.25 28.74 29.71 29.41 30.47 27.55 25.26 22.96 19.59 18.91 15.75 14.07 13.59 12.65 12.01 11.48 11.14 11.84 17.91 16.96 19.43

GFSCGP_sfc_wetblb_021.txt.gz
Wetbulb
38.21 34.11 32.60 37.46 37.01 35.54 32.39 30.98 30.84 35.25 38.85 35.07 35.84 37.23 39.92 43.29 42.81 39.11 40.18 42.47 43.67 44.54 47.09 45.81 43.62 42.31 42.22 41.20 41.49 40.93 39.72 40.23 40.19 38.24 36.62 37.12 37.54 36.72 36.47 37.08 36.49 35.04 34.62 33.82
34.46 31.89 38.75 37.31 36.05 35.55 34.78 33.69 32.51 37.50 39.27 34.55 35.68 36.09 39.68 40.00 42.06 43.73 43.78 43.20 44.13 44.27 44.80 45.50 40.88 39.75 40.79 41.52 41.74 41.09 40.25 39.73 40.09 40.22 40.15 38.86 39.23 35.63 37.56 36.06 35.35 35.06 33.85 33.14
35.95 36.45 39.60 37.11 34.52 34.15 33.02 31.42 34.31 33.88 35.07 33.85 32.51 34.03 35.99 38.02 40.74 42.69 43.69 44.30 44.62 44.31 44.42 45.01 40.58 38.83 39.73 40.71 40.75 40.88 40.12 39.48 40.25 40.38 38.76 32.78 32.70 31.32 31.29 32.51 33.89 33.95 33.73 32.66
34.49 38.74 37.85 34.33 33.54 35.99 33.59 36.07 36.20 34.64 29.62 29.34 31.80 27.78 32.48 37.01 38.91 38.14 41.53 43.17 42.57 43.55 44.00 43.90 42.53 38.42 38.05 40.73 40.71 40.71 39.82 38.84 39.94 39.31 37.70 37.08 36.87 35.86 34.99 36.48 35.06 33.55 32.88 31.96
33.69 33.70 32.97 33.46 36.50 36.61 35.00 35.72 34.03 30.95 28.20 27.04 27.60 25.34 30.53 34.14 33.75 37.50 40.63 42.15 43.34 43.79 42.63 43.47 42.79 39.71 39.99 39.02 38.29 38.80 38.49 38.11 39.32 38.51 38.44 37.72 37.36 37.55 34.26 32.88 31.53 32.14 31.44 31.64
35.53 35.37 36.52 36.17 35.70 36.26 35.24 32.30 31.23 28.22 27.59 24.01 29.43 29.40 30.32 30.98 35.12 35.78 38.97 40.80 41.97 43.53 42.22 40.80 39.29 38.92 37.73 35.83 35.59 36.59 37.02 36.87 38.23 37.41 37.69 37.38 36.96 32.38 30.93 30.84 31.80 31.87 31.54 30.54
30.34 32.59 34.28 37.01 32.90 33.08 34.39 29.61 23.64 21.20 19.90 23.69 29.40 26.85 34.41 36.41 37.06 38.73 40.47 40.71 40.16 39.15 39.07 39.25 38.24 37.53 36.00 33.60 33.69 34.68 35.71 35.61 36.78 36.13 36.67 36.43 36.45 34.35 34.29 32.26 33.20 31.53 30.68 29.88
27.50 29.51 32.89 35.09 35.34 32.30 31.34 31.52 24.18 16.42 19.85 28.55 27.13 27.35 35.77 38.03 39.27 38.54 36.81 37.62 38.49 38.61 38.93 37.68 38.37 37.14 35.22 33.60 32.94 35.14 34.44 35.11 35.48 35.03 35.65 35.91 36.23 35.24 34.58 33.30 33.61 32.51 32.44 32.15
26.85 28.51 32.19 33.62 33.55 36.02 29.17 28.00 32.69 26.38 16.10 17.51 29.54 32.97 39.26 35.40 36.13 35.32 37.14 34.89 36.02 36.59 36.63 36.37 36.56 35.53 34.63 33.45 32.76 33.12 33.23 34.49 34.64 34.44 35.52 35.43 35.35 34.50 33.68 31.99 32.28 32.78 32.27 31.34
33.58 28.78 33.68 30.72 33.04 32.41 32.51 32.89 26.35 25.79 20.71 15.57 27.13 27.70 31.89 36.03 39.70 41.69 36.45 35.83 35.57 36.09 36.95 37.51 37.30 36.25 34.67 33.56 33.24 33.22 33.13 34.87 34.27 34.12 35.17 35.26 34.46 34.35 32.46 29.85 31.06 31.49 31.07 30.27
37.29 34.13 32.69 34.40 31.16 32.05 28.53 28.46 29.13 30.16 28.65 25.25 23.64 28.90 40.42 38.51 35.57 34.28 34.85 35.97 36.14 38.03 39.45 38.65 38.50 37.49 35.62 34.36 33.16 32.60 32.65 33.07 33.34 33.51 33.95 33.58 32.80 33.37 32.45 30.72 31.03 31.11 30.19 29.35
36.94 35.46 31.40 32.08 34.35 33.37 32.35 31.74 31.81 27.32 25.25 28.17 29.61 30.46 42.34 42.13 41.71 40.94 42.09 41.81 37.86 37.42 38.25 38.36 38.39 39.48 38.14 35.32 33.85 33.68 33.10 33.27 33.82 34.20 33.24 32.91 33.27 32.78 32.35 31.69 30.86 30.90 29.35 28.97
37.65 32.58 29.17 30.29 30.83 32.10 32.18 34.65 35.00 34.51 32.56 27.46 24.23 27.75 40.89 41.52 41.43 42.49 41.87 38.62 39.44 38.88 39.69 39.84 38.22 37.98 38.63 37.83 36.07 34.21 34.52 34.47 34.18 32.52 31.94 32.44 32.26 30.99 31.69 32.25 30.99 29.59 29.26 28.20
41.55 36.08 32.69 27.52 31.01 34.09 29.85 31.70 33.64 33.80 29.24 28.96 29.67 31.57 36.49 38.56 39.42 41.64 43.11 43.33 42.58 39.25 37.91 36.12 36.21 36.23 36.96 36.99 36.27 35.53 34.73 34.01 32.20 31.55 32.16 32.08 31.36 31.14 31.89 32.38 30.68 28.55 28.97 27.61
36.66 31.32 33.59 33.14 33.80 32.91 31.75 31.69 33.77 33.00 33.88 29.54 31.68 32.42 36.19 39.29 38.97 36.41 34.38 35.09 34.07 34.30 34.43 34.13 34.20 34.41 34.27 34.08 34.58 35.73 35.87 33.35 32.34 32.09 31.80 31.87 32.22 31.48 31.38 30.70 29.63 28.62 28.22 27.44
32.29 25.36 28.59 26.31 29.85 29.89 28.96 32.53 33.19 32.32 31.84 32.52 33.13 32.91 31.16 29.32 27.77 26.35 27.71 28.07 28.17 29.15 30.84 32.05 32.18 33.52 33.30 33.31 33.43 33.69 34.89 34.10 31.18 30.54 31.60 32.69 31.57 30.41 30.10 30.04 28.67 27.63 27.04 26.51
26.45 25.84 22.15 19.96 25.75 24.26 19.40 25.23 28.29 30.31 31.46 28.10 25.74 23.38 26.58 24.26 23.66 24.78 26.32 26.80 27.41 28.73 29.84 30.57 30.27 31.08 32.01 32.67 32.62 32.41 33.15 32.77 32.63 30.53 31.80 29.99 29.59 29.54 29.18 28.88 27.09 26.24 25.48 25.24
23.88 22.37 20.37 16.70 17.55 6.39 21.95 27.00 24.46 24.43 23.54 24.70 23.75 23.11 25.40 24.56 25.25 26.92 29.90 26.80 27.74 29.15 29.62 30.25 30.06 30.35 30.92 31.74 31.60 31.84 31.68 31.52 30.91 29.76 30.72 26.69 27.59 28.61 26.66 25.74 25.12 25.04 24.72 23.69
26.60 23.55 9.93 8.02 7.03 18.74 23.52 20.55 17.40 16.59 18.77 23.53 21.17 22.77 23.67 24.91 24.87 25.42 28.39 28.62 27.71 28.85 29.34 29.99 30.48 30.52 31.40 31.33 31.01 30.48 29.71 30.06 29.35 28.49 28.36 26.15 25.22 26.83 24.20 24.21 23.33 23.50 23.28 22.53
24.25 25.56 20.82 16.44 10.44 6.90 18.30 20.53 25.30 23.87 15.16 24.17 24.64 23.23 23.05 23.19 15.31 20.09 26.88 27.44 27.62 28.68 29.16 28.60 29.65 30.24 30.43 30.82 31.38 30.21 29.55 28.94 28.57 28.97 27.15 24.88 23.23 22.26 23.59 24.00 22.56 22.84 22.77 22.53
4.52 2.05 3.67 3.56 11.59 14.40 20.18 22.76 23.29 10.81 10.61 24.11 24.10 24.67 24.07 20.73 22.46 25.66 27.00 26.34 26.84 26.87 27.02 28.00 27.76 27.71 28.60 29.73 30.05 29.21 29.63 29.34 29.94 26.32 22.86 21.68 20.93 22.44 22.26 20.10 20.49 20.98 21.25 21.01
9.07 2.03 -0.90 -1.96 -4.49 2.88 21.70 20.30 15.65 18.87 24.61 25.57 24.43 22.55 20.57 22.32 22.73 22.59 23.25 23.31 23.80 23.20 23.54 24.63 23.86 24.08 25.92 26.70 27.27 27.40 28.11 30.23 28.52 23.86 21.61 22.34 23.33 18.83 19.73 20.01 19.85 20.09 19.96 18.97
8.68 13.52 9.14 11.03 9.54 22.08 23.75 21.84 25.74 26.03 24.69 23.60 22.05 22.46 21.87 20.37 19.92 20.38 19.93 20.14 20.32 20.53 21.57 21.94 21.93 22.29 22.53 23.01 24.02 23.99 25.26 26.43 28.44 27.65 23.78 22.57 23.11 22.46 22.07 21.97 20.64 19.56 19.90 18.98
18.98 22.37 16.55 14.14 21.03 21.35 23.10 25.24 24.67 26.45 23.46 23.35 22.65 20.19 20.06 18.13 19.32 19.31 18.83 18.63 18.51 18.55 18.70 19.53 18.26 16.64 17.09 19.37 19.95 19.73 20.15 22.16 25.38 27.13 26.16 23.28 21.54 21.41 21.31 21.94 21.01 20.15 18.96 18.51
18.89 18.40 15.58 16.74 21.28 22.63 23.75 24.76 24.75 23.62 22.65 21.08 20.49 19.50 18.52 18.16 17.35 17.00 15.98 15.78 16.48 17.02 17.11 16.68 14.73 14.35 13.72 14.84 14.90 16.14 17.23 17.53 17.01 19.46 23.73 24.60 20.80 20.59 19.59 20.29 19.76 20.21 20.94 21.28
22.18 19.38 16.32 14.65 23.10 22.15 23.25 25.34 22.53 20.54 19.33 18.11 16.96 16.65 18.13 16.91 15.17 15.25 13.63 14.79 14.56 13.48 13.60 12.38 11.78 10.92 10.35 9.86 9.59 10.36 11.66 12.51 13.17 13.76 16.37 22.21 22.53 20.65 19.20 18.57 18.26 24.42 24.51 24.75

GFSCGP_sfc_wetblb_024.txt.gz
Wetbulb
36.96 33.32 32.18 37.19 35.74 34.22 30.71 30.06 29.28 33.71 36.94 33.09 35.67 36.67 38.55 41.48 41.63 41.77 42.69 42.84 42.09 43.47 46.50 46.70 43.10 41.55 40.94 39.99 40.98 40.36 39.24 40.59 40.40 39.46 37.34 37.17 37.69 37.39 37.40 38.08 37.70 36.33 36.09 34.65
33.20 30.31 37.37 36.07 34.53 34.53 33.49 31.88 31.30 35.89 38.02 33.00 33.92 35.07 38.34 39.72 40.56 42.59 42.92 43.32 44.10 44.56 44.20 44.82 41.45 39.78 39.22 40.49 40.71 40.22 39.94 39.85 40.33 40.78 40.43 39.85 40.07 38.25 38.96 38.04 36.30 36.06 34.80 33.99
34.19 35.16 37.84 35.94 33.13 33.18 31.63 29.75 32.71 32.19 33.59 32.60 31.10 32.53 33.79 37.26 39.10 41.46 42.60 43.34 43.14 43.25 43.53 44.34 41.90 37.27 37.90 38.07 39.00 40.46 40.57 39.89 40.24 40.67 39.83 32.86 32.43 31.82 32.52 33.62 35.06 35.39 34.72 33.73
33.44 37.03 36.42 32.69 32.27 34.51 32.62 34.98 34.88 32.86 28.87 26.30 31.44 26.14 34.01 39.58 39.83 37.35 40.03 40.17 38.99 39.98 41.24 40.67 40.54 38.55 38.25 39.20 39.00 40.19 40.10 39.61 39.44 39.73 38.78 38.05 38.02 36.28 36.61 37.62 37.35 35.53 34.51 33.48
33.58 33.11 32.05 32.40 34.56 34.50 33.31 34.05 32.55 29.44 27.43 25.80 25.86 24.75 28.54 32.61 33.38 36.57 38.12 39.66 39.61 39.13 39.00 40.41 40.59 40.33 40.08 39.18 37.50 38.72 38.21 38.70 38.94 39.20 39.20 38.23 38.75 39.27 35.59 36.20 34.95 33.88 33.18 32.87
33.45 34.43 35.55 35.57 35.22 35.66 35.02 31.63 30.37 27.32 26.55 22.31 27.97 28.32 27.90 30.61 34.25 35.35 38.00 39.41 39.14 39.80 39.50 38.73 38.36 37.83 37.83 36.49 36.06 35.62 36.11 36.95 37.87 38.26 38.75 37.94 38.55 35.29 32.64 32.63 33.43 32.98 32.34 31.68
28.70 31.85 33.68 35.22 31.82 32.36 31.83 29.60 23.23 20.77 19.56 23.37 27.40 25.27 33.42 34.83 37.21 38.05 39.63 39.70 38.74 37.19 37.43 37.37 39.00 39.32 36.83 36.28 33.55 33.53 33.89 33.95 35.35 35.42 37.20 37.18 37.89 34.01 34.21 33.01 33.95 32.02 31.63 31.34
26.90 30.34 32.53 34.25 34.55 31.89 29.94 30.73 24.82 18.56 17.71 27.61 24.94 23.98 32.28 36.82 38.44 37.16 35.62 38.04 36.31 36.67 36.32 37.68 38.10 36.96 36.00 35.31 33.11 32.59 32.57 32.86 33.72 33.49 34.79 34.74 35.31 34.53 35.19 32.95 33.94 33.41 33.37 33.62
27.45 27.77 31.24 33.00 33.09 34.74 27.95 27.97 32.10 27.62 19.04 18.39 29.51 33.55 36.01 34.96 34.01 33.84 35.79 35.40 34.97 36.38 36.65 38.03 37.93 37.09 35.68 34.35 32.75 32.13 32.19 32.63 32.74 32.85 33.89 33.64 34.51 33.90 33.98 31.63 31.72 32.59 32.32 32.79
34.15 29.94 32.81 30.90 32.87 31.77 31.79 32.69 27.00 26.84 21.36 17.36 26.66 25.97 30.83 35.27 38.53 38.58 35.30 33.98 35.61 36.26 37.17 37.74 37.27 37.43 37.12 34.97 33.13 31.86 32.18 32.47 32.52 32.36 34.06 34.83 34.49 34.70 32.91 30.38 31.09 31.22 31.64 31.01
37.97 33.82 31.89 33.44 30.12 30.84 28.36 28.38 29.19 29.57 28.68 24.65 23.20 27.96 39.03 35.61 32.97 33.68 33.27 36.91 37.48 39.59 40.18 38.31 37.77 37.30 37.29 37.04 34.53 32.15 31.38 31.28 31.78 31.44 32.13 32.59 32.66 32.09 30.47 30.55 31.34 31.63 31.25 30.41
38.49 36.78 30.84 32.54 36.20 34.70 33.49 33.17 32.71 28.20 25.41 26.73 28.87 29.16 41.27 40.26 40.16 37.68 37.02 35.07 34.57 34.46 33.95 34.30 34.66 34.80 34.45 34.38 35.09 35.36 34.56 32.28 32.35 32.62 31.56 30.72 31.15 30.00 30.43 31.36 31.26 31.74 31.19 30.58
37.56 34.01 29.18 27.81 29.82 31.50 30.85 32.22 34.00 34.11 33.07 28.27 24.99 27.45 40.63 41.08 39.73 29.89 30.49 31.37 32.14 32.10 31.88 32.71 32.72 32.92 33.75 33.76 33.51 33.97 34.58 35.07 35.25 32.00 30.75 30.36 30.40 29.64 31.36 31.95 31.50 31.01 31.13 29.92
41.18 35.47 32.47 27.71 30.53 33.00 29.47 32.23 33.66 32.10 26.48 28.27 28.22 30.83 35.59 32.34 28.50 26.68 27.81 28.11 29.10 29.58 30.26 30.80 31.15 31.45 32.15 33.11 33.36 33.20 33.25 34.09 33.92 33.60 30.97 30.47 29.78 31.14 32.20 32.61 31.17 29.56 30.25 29.50
35.53 29.77 32.53 32.20 30.82 30.61 29.80 29.47 29.17 27.34 28.82 25.08 27.29 29.65 32.71 25.22 24.39 25.71 28.60 27.76 27.71 28.52 29.10 29.26 29.66 30.05 30.41 31.12 31.75 32.51 32.88 32.33 32.35 31.75 31.96 32.02 32.11 31.76 31.57 30.34 29.96 29.14 29.57 29.92
30.99 23.11 26.36 23.48 26.94 26.85 24.54 26.29 26.72 26.44 26.35 28.00 29.58 28.04 25.60 25.68 26.32 25.71 27.17 26.94 25.88 27.17 28.67 29.47 29.58 29.70 29.37 29.65 30.26 30.60 31.36 31.27 31.18 30.64 30.56 31.66 31.89 30.88 29.49 29.55 29.93 28.66 28.05 29.13
24.24 20.66 14.87 15.70 22.82 19.12 13.89 19.79 23.27 23.86 25.52 22.88 20.50 20.75 23.72 21.92 23.23 24.07 25.47 27.06 26.68 25.44 26.90 28.07 28.58 28.88 28.37 29.58 30.53 29.87 30.36 31.21 30.75 30.61 30.82 30.93 30.29 29.76 29.96 28.28 27.35 28.16 27.68 27.98
21.76 19.55 13.34 12.85 7.73 -1.38 19.37 22.78 21.54 21.82 21.72 22.60 21.43 20.94 22.35 22.87 24.09 24.62 26.36 25.51 24.57 25.56 26.44 27.01 27.53 28.18 28.73 29.71 29.95 30.28 30.22 29.71 29.60 29.70 30.31 30.27 29.31 28.29 28.65 26.36 27.14 27.80 27.57 27.06
24.80 21.01 6.89 3.16 -2.39 14.70 20.43 18.20 15.91 15.10 16.37 20.26 20.83 23.91 24.33 24.21 23.06 21.78 26.38 26.66 25.67 25.79 26.97 26.82 27.07 27.26 27.60 27.20 27.94 27.74 27.18 27.40 27.94 28.67 29.29 28.82 27.41 27.13 27.38 26.49 25.94 26.29 26.57 25.92
23.04 23.38 17.77 0.87 9.97 1.60 15.17 18.05 22.54 20.80 5.48 18.14 18.63 18.81 18.45 21.83 11.11 18.33 23.54 25.80 25.68 26.57 26.80 25.94 26.16 26.16 25.77 25.85 26.12 25.13 23.99 24.46 25.24 27.92 29.02 29.33 27.25 25.70 24.61 26.00 24.86 25.70 25.70 25.72
1.43 -0.75 7.52 7.52 4.43 7.65 18.45 21.10 22.18 4.26 9.00 17.70 19.62 21.30 21.84 19.82 19.13 22.99 24.85 22.90 24.10 24.23 24.31 24.90 23.90 22.62 23.97 24.96 24.96 23.34 22.49 22.28 24.86 26.53 24.27 24.32 27.09 27.58 25.31 22.91 20.44 20.25 23.54 23.38
9.47 0.74 -3.08 -7.07 -4.49 -2.39 18.87 19.08 13.34 17.76 22.86 21.49 23.18 23.36 22.49 22.36 23.09 23.09 22.58 21.67 21.47 20.81 20.98 21.45 20.36 20.64 21.90 22.88 21.97 19.69 19.37 22.43 22.93 21.38 20.58 22.16 26.63 28.51 26.31 22.70 20.84 22.00 22.39 19.89
7.50 12.13 4.67 8.25 7.33 20.09 19.54 21.55 26.36 25.28 22.82 23.35 22.94 24.36 22.38 21.69 20.29 20.67 20.07 20.33 20.50 19.87 20.11 19.95 17.44 18.04 19.17 19.40 18.86 16.65 18.07 18.53 17.80 17.73 18.09 18.96 19.28 21.50 26.63 24.11 22.85 20.82 20.97 19.55
18.36 21.18 16.15 16.67 20.45 21.63 24.19 25.93 25.15 24.80 23.72 25.26 24.54 21.49 20.94 18.72 19.54 19.23 19.52 19.65 18.97 18.37 17.76 17.75 16.43 15.41 15.12 16.15 15.90 14.80 15.23 15.42 13.16 12.05 12.44 14.52 15.44 18.80 23.77 23.66 23.46 21.98 20.95 20.20
19.15 18.08 15.29 17.05 21.15 22.68 24.01 24.88 25.44 25.54 24.89 22.39 20.99 20.41 19.10 17.92 17.51 18.11 16.99 16.12 16.34 16.35 16.21 15.94 14.22 13.37 12.78 13.49 12.51 11.67 11.08 9.78 8.20 8.33 9.37 10.30 12.82 14.08 17.64 23.32 22.79 22.29 22.75 23.04
22.40 19.58 16.31 14.56 22.71 22.03 22.86 25.92 23.84 21.96 20.67 19.04 17.54 16.59 17.88 17.37 15.52 15.17 13.54 14.32 13.81 13.18 13.45 11.81 11.10 10.11 9.24 8.80 7.92 7.68 7.05 5.81 4.85 4.75 6.01 7.63 9.51 10.67 13.77 17.91 21.67 25.57 26.71 26.29

GFSCGP_sfc_wetblb_030.txt.gz
Wetbulb
45.00 42.06 39.36 42.90 43.60 43.60 41.11 39.53 39.07 41.95 44.22 41.34 41.13 42.08 43.74 45.32 45.58 46.02 46.96 47.95 48.83 49.12 50.68 50.85 51.10 51.63 51.77 51.73 51.11 51.11 50.76 50.42 51.93 52.07 52.29 52.85 52.28 52.67 53.10 53.94 52.89 51.76 50.61 48.53
40.81 38.70 43.99 44.05 41.78 40.31 40.32 38.88 38.95 42.29 43.55 40.13 41.22 40.43 43.11 44.89 45.35 46.28 46.44 47.69 48.52 48.69 49.02 49.75 50.26 50.77 50.80 50.20 50.23 49.85 49.68 49.51 49.83 50.99 51.86 52.11 51.60 51.85 52.08 52.27 51.49 51.00 49.50 48.34
41.01 43.50 42.88 41.09 40.61 38.77 40.26 38.03 39.02 39.02 41.17 41.36 39.26 39.96 41.36 45.17 44.96 46.46 46.78 47.34 46.91 46.50 47.89 48.82 48.43 48.29 48.53 47.99 48.29 47.89 48.50 48.63 48.58 49.39 49.92 49.89 48.80 49.51 48.59 49.19 48.57 48.45 48.14 47.80
40.57 42.56 39.94 38.42 38.32 40.40 37.03 42.66 39.71 37.81 36.37 34.20 39.34 33.36 41.63 44.50 45.28 46.00 46.03 45.54 45.92 47.19 47.31 47.21 46.79 45.94 45.68 45.44 46.40 46.81 47.08 47.02 46.94 47.67 47.72 47.58 46.12 45.67 46.97 47.15 47.50 47.31 46.68 46.40
40.64 38.48 37.35 37.65 39.55 40.45 38.69 39.59 37.89 36.85 36.15 34.65 36.66 33.52 41.40 41.99 40.76 43.84 44.16 44.89 45.03 44.94 44.56 43.49 43.56 43.47 43.49 43.71 43.85 44.62 45.57 45.71 45.78 45.91 46.58 46.19 45.79 47.28 48.03 47.38 46.62 45.98 45.07 45.37
40.12 40.64 40.29 40.88 39.74 39.87 39.71 38.95 38.61 36.00 35.67 31.21 38.32 35.55 37.93 40.41 41.45 42.74 43.13 42.80 42.38 42.20 41.91 41.29 41.46 41.31 40.79 41.62 42.04 42.65 43.40 42.73 44.16 44.57 45.16 45.20 44.48 44.70 45.38 44.12 44.02 43.94 43.69 43.38
41.39 42.30 40.36 39.82 37.95 38.28 38.55 36.19 31.46 32.11 31.13 32.00 35.02 34.23 37.96 42.82 43.35 41.34 39.95 39.81 39.95 40.14 39.54 38.91 38.68 38.64 38.84 39.08 39.61 40.08 40.47 39.98 41.64 42.25 43.04 43.79 43.89 44.11 43.94 43.69 42.95 43.24 42.41 41.77
34.85 34.03 37.53 39.54 39.14 39.02 36.52 36.73 31.27 26.52 28.92 32.95 37.88 32.79 39.47 43.46 40.62 40.05 39.97 39.83 39.45 38.57 38.42 37.91 37.97 38.31 38.42 38.26 38.53 38.74 38.74 38.38 39.05 39.90 40.55 41.47 42.16 42.65 43.48 43.66 43.09 43.17 42.98 43.08
34.94 34.92 38.96 37.07 38.71 39.37 35.17 32.84 39.16 31.36 32.66 28.18 33.93 39.08 41.10 39.81 38.25 38.26 38.00 38.62 37.14 36.91 36.90 36.68 37.24 37.29 37.54 37.93 38.08 37.82 37.70 37.66 37.92 38.25 38.61 39.25 40.25 40.58 40.95 42.19 42.76 42.78 43.28 42.80
37.45 32.88 39.88 38.74 38.01 38.51 37.97 39.89 32.21 32.52 24.69 23.83 30.91 33.79 35.23 36.55 35.21 36.49 36.11 35.21 35.24 35.81 35.89 36.27 36.49 36.36 36.86 37.43 37.75 38.01 37.81 36.82 36.78 36.90 37.63 37.87 38.46 38.75 39.29 39.70 39.66 40.42 41.27 41.59
38.51 36.14 36.86 37.83 35.96 36.17 34.20 32.15 32.89 32.41 31.62 26.72 25.51 31.43 39.98 36.40 34.59 34.61 33.94 34.12 34.17 34.42 34.86 35.32 35.93 36.36 36.30 36.71 36.42 36.58 36.26 35.65 35.51 36.06 36.23 36.73 37.31 37.71 38.08 37.66 38.30 38.58 39.22 39.74
39.50 37.03 31.83 34.53 41.09 40.25 37.38 36.14 35.62 29.28 27.82 30.40 29.79 30.36 41.52 36.02 33.57 32.93 31.36 31.57 32.77 33.54 34.23 34.54 34.91 35.07 34.95 34.90 35.16 35.17 35.20 34.73 34.55 35.01 35.22 35.32 35.95 36.32 36.04 36.63 37.19 37.74 37.25 37.79
39.15 35.37 29.99 32.25 35.73 36.17 34.07 36.71 35.92 36.28 34.20 29.63 27.35 30.33 36.80 34.34 30.88 30.55 29.66 29.96 31.01 31.78 32.07 33.03 33.51 33.34 33.50 33.46 33.50 33.56 34.00 33.46 33.54 33.63 33.58 33.47 33.58 34.24 34.06 34.23 35.09 36.19 36.45 36.76
39.79 33.89 31.43 26.91 29.98 33.66 32.25 33.32 32.76 31.38 27.46 28.59 29.34 30.15 34.16 36.07 35.45 30.92 29.91 29.62 30.50 30.77 29.94 31.05 31.80 31.85 32.58 32.31 31.98 32.12 32.51 32.54 31.90 32.23 32.02 31.75 32.29 32.89 33.16 33.01 32.94 33.42 34.77 34.74
35.61 29.97 31.67 32.09 33.16 32.56 30.88 29.59 29.30 27.10 28.18 24.31 27.76 27.29 31.12 33.47 27.85 27.14 27.65 28.54 29.70 29.95 28.78 29.25 29.72 30.63 31.15 31.01 31.02 31.22 31.48 31.30 31.03 30.27 29.88 30.05 31.60 32.53 32.42 31.45 31.29 31.79 32.59 32.64
30.85 27.21 27.88 24.21 28.60 28.52 25.57 26.22 26.83 26.77 26.84 26.18 26.84 26.72 33.31 28.36 28.87 28.37 28.33 27.75 27.73 28.49 28.87 29.22 29.61 29.72 29.44 29.50 29.17 29.27 29.99 29.98 29.41 28.91 28.40 28.99 29.88 30.94 30.51 29.38 28.81 29.59 30.32 31.74
26.50 26.05 24.25 20.20 26.41 23.03 18.30 23.26 26.76 28.25 29.77 28.67 23.53 26.33 25.70 24.78 27.14 28.16 28.24 28.48 28.17 28.69 28.93 29.19 29.52 29.96 30.01 30.06 29.86 29.13 29.24 29.56 28.33 27.78 27.51 27.56 28.27 28.45 28.19 26.71 26.56 27.28 28.89 30.49
24.86 24.12 23.64 18.85 16.09 10.17 24.16 27.35 26.99 25.42 26.56 25.32 24.11 24.32 26.18 26.69 28.31 29.22 30.02 29.03 28.77 29.62 29.48 30.18 30.39 30.39 30.54 30.80 30.14 29.76 28.63 27.64 27.13 27.12 26.53 26.67 26.48 25.91 26.09 24.71 24.51 25.69 28.54 29.62
27.45 23.79 18.62 13.67 14.61 19.06 22.01 24.72 23.02 21.70 23.03 26.60 25.15 25.25 26.18 27.83 28.08 27.51 30.60 30.62 30.21 30.93 30.85 30.78 30.62 29.78 29.31 28.79 28.72 27.53 26.65 26.37 25.82 25.43 25.73 25.60 25.09 23.92 22.76 20.65 22.58 24.40 27.10 28.00
23.92 25.06 19.54 8.49 9.84 8.13 21.37 23.16 25.33 24.20 16.60 22.37 23.06 24.10 24.37 25.60 19.40 24.74 30.83 31.50 30.44 31.15 30.93 29.30 28.91 28.21 27.58 27.23 26.06 24.26 24.08 23.91 23.71 24.92 24.82 24.68 23.95 21.72 19.78 20.67 20.41 22.22 23.98 22.96
16.24 17.05 15.37 16.11 13.05 17.33 24.94 24.54 25.96 13.71 17.85 25.16 25.53 25.31 25.06 22.96 26.40 29.96 31.19 30.70 31.07 30.12 28.59 28.18 27.81 25.94 25.79 25.83 24.63 22.31 22.29 21.60 23.43 23.55 23.02 22.31 21.95 20.22 19.44 19.10 19.55 18.94 18.81 19.95
16.82 14.31 12.65 10.24 9.76 8.78 23.72 22.18 18.46 25.30 27.44 27.92 27.52 27.91 26.74 27.63 28.33 28.88 29.57 29.52 29.70 27.23 26.23 26.00 24.40 23.76 24.16 23.73 22.23 20.35 19.53 21.83 21.64 20.45 19.34 18.40 17.63 17.65 17.35 15.39 15.44 15.66 16.03 16.60
14.28 19.80 17.00 15.57 17.66 24.92 25.05 26.26 29.24 30.03 27.83 28.26 28.12 29.01 28.41 27.15 27.03 27.95 27.62 26.02 24.92 23.91 23.09 23.30 21.18 20.01 20.57 20.66 19.71 16.97 18.10 18.11 16.63 14.34 12.65 12.78 13.41 13.42 13.14 12.09 12.07 13.08 14.10 14.70
22.19 25.47 18.73 19.58 23.30 24.79 27.40 29.46 30.10 30.22 28.64 29.49 29.97 28.70 27.13 25.22 25.25 22.56 22.05 21.80 20.84 20.18 18.81 18.75 17.03 15.41 14.72 15.75 14.86 13.44 13.39 12.77 9.60 8.17 8.50 9.19 8.54 8.98 9.48 10.57 10.96 10.85 11.63 12.79
23.20 23.06 20.27 20.18 23.85 25.67 27.13 28.51 29.31 29.55 29.86 27.37 23.64 23.14 22.58 20.88 19.99 19.46 18.12 16.88 16.86 16.24 15.51 14.50 12.22 11.20 10.38 10.93 9.43 8.60 7.94 6.67 4.62 4.28 4.63 4.88 5.52 5.39 6.04 7.61 8.33 9.17 11.39 12.87
25.17 22.22 19.20 18.05 25.51 24.88 25.84 29.21 30.00 27.16 26.60 21.87 19.89 19.14 18.71 16.63 15.90 15.50 14.01 14.33 12.92 11.57 10.76 8.78 8.14 7.14 6.14 5.36 4.45 4.44 4.37 3.27 1.65 1.69 2.52 3.19 3.27 3.66 4.39 4.55 5.22 10.59 12.80 14.89

GFSCGP_sfc_wetblb_033.txt.gz
Wetbulb
47.09 43.08 40.75 44.26 46.14 45.22 43.82 42.02 41.22 43.92 46.47 44.93 44.06 44.03 45.55 47.73 47.80 48.07 48.93 49.80 49.73 50.05 51.05 51.42 51.54 51.94 52.11 52.23 52.18 52.38 52.55 53.31 53.56 54.40 54.95 55.88 56.18 57.24 57.47 57.95 57.93 57.21 55.62 54.18
42.62 40.24 45.54 46.62 45.90 42.58 42.24 40.64 40.66 44.16 46.54 44.88 43.28 42.21 44.49 46.19 47.58 48.64 48.80 48.84 48.97 49.07 49.10 48.95 48.81 48.68 48.52 48.38 49.09 49.93 50.76 51.53 51.61 52.90 54.18 54.69 55.00 55.80 56.06 56.35 56.24 55.98 54.90 53.25
41.79 45.34 47.45 43.65 43.23 41.48 42.14 40.89 41.12 40.69 43.32 43.75 42.14 40.58 43.92 47.51 49.70 48.61 47.79 48.19 48.26 46.97 46.18 46.23 45.40 45.15 45.92 45.78 46.49 47.52 48.51 49.49 50.15 50.74 51.54 51.96 52.66 51.70 51.40 52.65 53.47 53.75 53.67 52.55
43.80 44.37 41.83 41.80 40.57 42.26 38.23 43.74 41.78 39.82 38.20 34.97 41.44 33.18 42.01 46.07 47.30 44.97 45.77 44.98 45.26 44.91 44.62 43.97 43.30 42.75 43.04 44.28 45.92 46.40 46.67 47.32 47.50 48.65 48.66 48.64 48.25 47.21 48.73 49.98 51.51 51.60 51.75 51.09
41.23 40.61 39.83 39.29 40.90 43.17 39.72 42.22 40.16 39.30 37.36 37.37 38.42 35.47 41.21 46.34 42.82 42.63 43.89 43.62 43.19 42.78 42.63 41.69 41.60 41.96 42.34 43.14 43.85 44.91 44.74 44.79 45.90 47.08 47.15 47.07 46.49 47.43 48.36 49.33 49.70 49.38 49.39 49.16
42.28 44.16 42.43 42.83 43.23 42.58 42.60 40.15 40.68 40.87 38.22 32.91 39.65 38.94 39.61 41.37 41.69 41.63 41.90 41.62 41.69 41.81 41.71 41.78 41.98 41.83 41.29 42.08 42.63 42.82 42.17 42.10 43.77 44.25 44.92 45.21 45.22 45.15 45.33 46.26 46.36 46.80 47.10 46.90
42.90 42.84 47.46 43.39 40.63 42.37 39.45 37.47 33.56 32.70 32.45 32.35 38.52 37.39 39.78 43.49 42.46 42.53 40.46 40.24 40.68 41.06 40.36 39.87 39.88 40.26 40.15 40.05 40.54 40.90 40.65 39.89 41.47 41.76 42.10 42.74 42.93 43.52 43.75 44.73 44.91 44.94 44.77 44.63
36.77 35.08 42.73 42.04 41.17 39.88 38.98 39.40 33.68 27.24 28.78 32.84 38.24 32.91 39.99 42.92 41.79 41.91 41.79 40.98 40.26 39.45 39.57 39.00 38.89 38.99 39.28 39.48 39.61 39.86 39.34 38.32 38.93 39.93 39.90 40.93 41.47 42.05 42.66 43.09 43.45 43.89 44.02 44.78
36.52 36.26 41.60 40.38 41.19 40.73 39.09 35.16 40.65 34.14 33.52 29.85 34.20 38.94 44.17 40.53 39.69 40.46 40.11 39.72 38.46 38.36 38.54 38.54 38.66 38.29 38.30 38.34 38.30 38.02 37.75 37.73 37.77 37.86 38.48 39.15 39.72 39.70 39.71 40.46 41.62 42.15 42.85 42.82
39.29 33.44 41.91 41.59 39.81 40.22 36.94 38.74 32.55 32.71 25.20 24.25 31.07 33.82 35.95 37.95 38.05 39.06 37.80 37.12 36.98 37.59 37.42 37.48 37.56 37.39 37.69 37.79 38.01 37.99 37.60 35.93 36.18 36.76 37.38 37.68 38.13 38.62 38.94 39.52 39.04 39.35 40.25 40.79
41.78 36.89 37.07 39.92 37.36 36.83 36.53 33.39 33.50 33.98 32.89 26.70 25.77 31.13 42.30 38.13 39.12 37.32 35.72 35.60 35.65 35.93 35.99 36.23 36.40 36.62 36.81 36.98 36.58 36.39 36.06 35.23 34.80 35.42 35.84 35.89 36.08 36.92 37.11 36.38 36.62 37.17 38.14 38.58
41.08 37.72 32.10 34.52 40.83 42.39 40.35 37.20 36.80 29.84 28.15 30.84 29.89 30.79 44.41 37.82 37.47 35.53 34.57 34.61 34.44 34.53 34.29 34.66 34.93 35.09 34.85 34.45 34.33 34.18 34.34 33.74 33.83 34.35 34.66 34.34 34.57 35.26 35.07 34.58 34.56 34.56 34.69 35.92
39.91 35.00 28.60 30.08 34.85 37.78 35.28 36.08 35.79 35.59 33.51 29.51 27.62 30.51 39.77 38.38 34.75 33.02 32.83 32.19 32.43 32.58 32.30 32.91 33.55 33.17 33.14 33.04 32.92 32.90 33.13 33.06 33.05 32.78 32.94 32.92 32.62 32.96 33.25 33.29 33.20 33.08 33.19 33.49
40.39 34.77 31.38 26.65 29.42 34.55 31.45 33.13 34.86 32.81 27.92 28.16 28.31 30.22 35.24 37.30 37.23 37.25 34.00 32.67 32.04 32.25 31.08 31.20 31.68 32.22 32.87 32.65 32.32 32.23 32.27 33.10 32.57 31.91 31.77 31.17 31.00 31.22 32.08 32.54 31.66 31.26 31.66 31.74
37.04 29.35 31.17 32.07 33.02 32.47 30.51 29.58 30.83 29.17 30.50 25.99 28.69 29.18 33.05 35.24 34.30 31.19 30.59 30.46 30.65 31.41 31.58 30.39 30.39 31.00 31.82 31.90 32.01 32.18 31.89 32.40 32.12 30.57 30.10 29.90 30.19 30.69 30.42 30.76 29.95 28.96 29.25 29.99
33.04 26.46 28.84 25.04 29.24 29.19 26.95 29.45 30.04 29.87 29.59 28.65 29.10 28.85 36.29 33.57 32.20 31.84 31.58 30.25 29.49 30.18 30.82 30.83 31.14 31.36 31.16 31.36 31.25 31.32 31.28 31.34 30.91 29.46 28.74 29.30 28.79 28.65 28.62 28.81 28.38 27.26 27.32 28.05
28.48 26.39 24.39 19.83 26.11 25.19 19.70 24.09 26.68 27.95 30.02 29.73 25.41 28.46 28.49 28.06 28.45 29.17 29.41 29.73 29.60 30.12 30.88 30.99 31.18 31.58 31.68 31.78 32.03 31.12 31.39 31.43 29.63 28.67 28.44 28.21 28.03 27.10 27.11 27.02 26.70 25.52 25.13 26.31
26.79 25.71 24.88 19.67 20.98 11.73 24.90 31.12 28.63 26.19 27.43 29.09 27.29 26.33 26.71 26.92 29.08 30.18 31.34 30.17 29.85 30.60 30.83 31.68 32.05 32.18 32.12 32.19 31.46 31.40 30.76 29.77 28.60 27.50 27.00 27.12 27.17 26.22 26.24 25.41 24.97 24.07 24.64 24.46
29.29 25.41 20.47 16.25 16.26 20.75 23.54 26.57 25.73 24.21 23.66 29.17 27.86 26.32 26.95 28.19 28.47 28.40 32.40 32.69 31.64 31.88 32.14 32.80 33.22 32.04 31.01 30.13 29.85 27.95 26.97 26.87 26.46 25.78 25.59 25.94 26.20 24.96 24.38 22.43 22.70 23.07 22.52 22.24
25.53 27.10 21.82 17.51 11.24 8.81 22.47 25.41 27.45 26.25 16.91 27.46 27.45 26.07 25.79 26.36 19.58 25.23 31.31 32.10 32.04 32.87 33.02 32.45 31.70 30.27 29.33 28.27 27.32 25.27 24.31 23.97 23.33 24.04 24.33 24.75 24.42 22.86 21.63 21.89 21.37 21.79 20.82 20.40
18.60 19.35 16.98 17.24 15.20 18.18 26.74 27.23 27.35 14.60 19.05 27.80 27.51 26.84 26.31 24.02 27.12 30.41 31.80 31.68 32.56 32.44 32.14 31.29 29.38 26.88 26.28 25.78 24.09 21.79 21.74 20.91 22.36 22.13 21.71 21.15 20.90 19.73 19.68 19.50 19.51 18.58 17.77 17.59
18.01 16.33 15.54 16.52 13.12 9.99 26.79 24.58 19.42 26.17 28.74 29.03 28.97 29.47 28.10 29.36 29.89 30.10 30.46 30.57 30.69 29.04 27.88 26.29 24.07 23.12 23.37 22.58 20.57 18.41 17.45 19.40 18.35 16.82 15.56 14.34 13.85 14.20 14.74 13.36 13.81 13.98 13.50 12.46
15.34 21.07 18.43 19.26 19.18 27.34 27.91 27.93 30.47 30.60 29.02 29.26 29.40 30.16 29.81 28.86 28.68 29.42 29.09 29.01 27.20 25.07 23.56 23.07 20.26 18.85 19.38 19.07 17.17 13.87 14.66 14.60 12.74 9.37 7.21 7.24 8.26 8.85 9.20 8.42 8.50 8.82 9.64 9.48
23.60 27.35 21.22 21.04 23.95 25.90 28.13 30.14 30.47 30.82 29.80 30.80 31.10 30.38 29.83 27.67 28.05 25.76 24.36 23.72 22.65 21.43 19.86 18.88 16.58 14.69 13.81 14.33 13.54 11.74 11.37 10.46 6.34 4.04 4.14 4.99 4.51 4.97 5.56 6.53 6.75 6.11 6.02 6.30
25.19 25.78 22.40 21.85 25.03 26.90 28.16 29.26 29.78 30.02 30.49 29.74 30.10 27.50 26.60 25.67 23.39 22.59 20.78 19.26 18.86 17.73 16.50 15.14 12.65 11.72 10.88 11.13 9.50 8.59 7.93 6.21 3.80 3.11 3.27 3.39 4.05 3.84 4.37 5.54 5.25 5.42 6.85 7.37
26.36 23.71 20.83 19.31 26.61 25.93 26.87 30.24 30.95 29.18 28.99 29.55 28.15 23.46 22.02 20.46 19.64 18.72 16.68 16.59 14.85 13.36 12.20 10.41 9.76 8.55 7.29 6.77 5.94 5.75 5.43 4.21 2.36 1.86 2.36 2.87 2.94 3.46 4.11 3.92 4.05 9.87 11.79 13.37

GFSCGP_sfc_wetblb_036.txt.gz
Wetbulb
44.45 39.11 36.41 40.23 41.74 42.22 39.43 37.72 37.05 40.54 44.05 41.35 40.85 40.96 42.37 44.72 44.81 44.77 44.84 44.04 44.28 44.32 45.18 45.20 45.12 45.04 44.72 45.05 45.68 46.26 46.68 47.62 48.51 49.26 49.35 50.57 51.13 52.82 53.27 53.99 54.20 53.96 53.17 52.15
40.12 36.59 42.94 44.45 43.15 41.12 39.64 36.86 36.33 40.50 43.39 40.38 39.12 38.74 42.34 44.02 43.93 43.74 42.87 43.62 43.47 42.93 42.68 42.75 41.96 41.96 42.30 42.60 43.32 44.50 45.51 45.85 46.28 47.00 48.52 48.87 49.46 50.06 51.55 52.36 52.46 52.71 51.77 50.57
38.91 42.55 45.63 43.44 41.02 39.68 39.26 37.34 37.33 36.22 39.07 39.76 36.94 35.04 38.64 43.18 43.43 43.62 43.25 42.45 41.99 40.69 39.81 39.84 39.64 39.48 40.12 40.52 41.21 42.30 43.27 44.05 44.75 45.01 46.06 45.96 46.41 45.71 44.43 46.76 48.27 49.87 50.71 49.43
41.70 42.34 41.23 39.37 38.82 39.88 35.38 40.74 38.49 37.58 33.33 28.90 36.34 25.93 35.31 41.39 39.18 40.60 40.12 39.09 38.63 38.76 39.06 39.08 38.61 38.09 38.46 38.97 40.16 40.62 41.54 42.11 43.70 43.89 43.53 42.73 42.20 41.72 42.70 44.00 46.03 47.60 48.61 48.06
39.15 38.39 38.01 37.51 39.21 40.52 37.66 38.79 37.01 36.06 32.79 30.74 32.67 28.56 34.23 40.07 36.44 37.26 37.77 38.13 37.69 37.77 37.64 37.33 37.57 38.56 38.65 38.79 38.18 38.25 39.12 39.88 40.53 41.09 41.39 41.22 41.00 41.62 41.70 42.01 42.10 43.22 44.64 45.93
39.85 40.99 39.69 41.05 42.08 40.06 40.54 36.34 36.38 35.24 32.91 25.73 33.19 32.50 33.04 34.79 36.82 35.89 37.25 37.77 37.97 37.59 37.38 37.82 38.53 38.71 37.65 37.20 36.89 36.78 36.88 37.58 38.80 38.91 39.43 38.82 37.84 38.52 38.67 39.53 39.63 40.26 41.47 42.18
38.46 38.53 40.73 42.38 37.77 38.66 36.29 32.87 27.31 26.07 24.11 25.49 35.07 31.55 34.94 37.45 38.57 38.24 36.83 36.92 37.13 37.36 36.14 36.53 36.05 35.78 36.56 36.19 36.38 36.98 35.85 35.39 36.29 36.75 37.12 37.22 37.18 36.87 37.29 37.37 37.58 37.74 38.65 39.37
33.97 31.25 37.91 38.74 37.72 34.99 34.66 34.77 28.58 20.97 22.99 25.55 32.68 27.21 35.26 38.45 38.98 38.97 38.29 37.10 37.06 36.06 36.29 35.08 34.97 35.18 35.29 35.99 34.91 35.55 35.27 34.67 34.93 34.84 35.01 35.68 36.26 36.23 36.37 36.26 36.76 37.29 37.80 38.23
33.50 33.62 37.41 38.20 37.52 37.36 34.23 32.02 35.73 31.43 31.16 28.53 29.75 34.07 36.03 37.35 36.70 36.95 36.20 35.01 33.63 34.10 34.73 34.80 34.54 34.21 34.34 34.09 34.64 35.17 34.39 34.26 33.77 34.49 34.30 33.91 34.28 34.33 34.17 34.60 35.01 35.42 35.91 37.77
38.04 32.21 39.02 37.27 36.44 36.03 34.49 36.00 30.28 31.02 22.20 14.94 25.39 26.47 30.96 34.01 34.99 36.05 34.28 32.80 33.76 33.96 33.76 33.89 33.32 33.22 33.47 33.24 33.06 33.25 33.02 32.11 32.61 33.51 33.76 33.46 33.08 33.38 33.02 32.51 31.69 31.62 32.92 34.35
39.90 35.94 34.06 36.73 34.22 34.66 32.58 31.48 31.97 31.84 29.06 22.75 21.60 25.53 34.89 34.53 35.63 32.93 32.03 33.08 33.52 33.22 32.75 33.25 33.90 34.21 33.33 31.99 31.31 31.99 31.80 30.67 30.60 31.58 31.91 31.62 32.41 32.61 32.53 31.56 31.01 30.16 30.34 31.08
39.84 36.17 28.88 31.99 37.36 38.45 35.96 34.01 34.21 28.67 26.18 27.15 28.11 27.68 34.74 33.47 33.07 33.35 33.24 33.87 32.88 32.94 30.70 30.76 31.58 32.61 32.02 30.63 30.67 31.14 31.44 30.23 30.22 31.47 30.42 30.11 30.59 30.71 30.55 30.76 30.29 29.11 29.22 29.85
38.24 31.45 24.75 25.06 30.42 35.40 32.97 33.82 34.71 33.90 31.85 27.29 25.22 26.78 36.98 33.55 32.83 33.55 34.43 33.41 31.69 31.66 29.94 30.46 31.28 30.25 30.33 30.29 30.56 30.59 30.09 30.01 30.52 29.72 28.92 28.38 28.21 27.55 28.09 29.05 29.58 28.81 28.17 27.59
40.09 33.71 26.47 20.36 25.61 30.97 25.49 28.84 30.89 28.51 26.23 24.61 25.34 26.86 32.02 34.05 33.06 32.76 34.02 34.28 29.79 30.34 30.01 29.53 29.50 29.72 29.80 30.49 29.64 28.79 28.64 29.06 29.02 28.24 27.54 26.09 25.97 26.49 27.02 27.66 27.69 27.03 25.97 25.27
36.13 26.68 28.12 30.10 30.51 28.77 26.41 26.42 28.36 26.46 27.07 21.71 24.54 24.93 29.83 32.36 30.07 27.46 27.28 27.68 27.87 28.57 29.46 28.24 27.56 29.05 29.04 28.03 27.87 28.37 28.24 28.34 28.13 27.33 26.12 25.54 25.77 26.28 25.74 25.79 25.99 26.27 25.40 24.72
32.26 18.25 23.08 15.61 25.90 26.80 24.32 26.28 26.70 26.69 27.02 26.60 26.88 25.95 32.98 28.37 28.59 27.63 28.08 28.06 26.88 27.14 27.84 28.70 28.75 28.60 28.31 28.72 28.02 28.62 27.87 27.41 26.84 25.06 25.02 25.74 25.76 26.30 26.09 25.88 25.42 25.39 25.35 24.12
26.26 20.96 12.27 8.31 22.28 20.05 11.92 21.35 24.46 25.77 27.60 26.54 21.34 25.41 23.11 23.33 25.09 25.64 25.73 26.56 26.84 27.58 27.45 27.67 27.95 28.14 28.12 27.63 28.71 27.38 27.75 27.20 25.96 25.96 25.34 25.32 25.34 24.39 24.91 25.53 24.87 24.26 23.54 23.35
24.59 19.77 17.10 8.61 11.03 1.09 20.51 26.13 24.02 22.07 23.90 22.13 20.85 19.47 20.83 22.34 24.19 24.92 26.69 26.26 26.34 27.02 27.83 27.81 27.67 27.70 27.54 27.31 26.49 26.17 25.57 24.77 24.74 23.58 23.31 24.48 24.34 23.30 24.30 24.04 23.77 23.44 23.09 22.17
27.98 23.58 13.47 7.31 5.60 15.86 21.24 22.49 19.44 17.43 17.87 22.00 20.61 23.61 24.17 23.71 23.43 22.91 27.59 27.29 26.23 26.86 27.71 28.02 27.70 27.61 26.09 24.96 24.19 23.66 23.29 23.45 22.95 22.76 22.70 22.82 22.23 21.02 21.83 20.95 21.43 21.98 21.36 20.78
23.10 23.93 17.74 4.03 3.37 -1.83 15.74 19.89 24.58 22.61 9.64 17.41 17.88 17.45 19.47 21.77 12.67 18.26 26.12 27.42 27.54 28.48 28.25 27.29 25.90 25.40 23.81 23.23 23.14 21.70 20.71 20.13 19.63 20.54 20.66 20.21 19.15 17.42 16.82 17.27 16.91 17.77 17.72 18.15
8.67 8.20 12.01 13.72 11.55 12.12 21.58 22.74 24.43 7.59 13.20 21.97 21.04 21.96 21.95 19.31 20.94 25.15 27.30 27.25 28.07 27.09 25.05 23.99 22.82 22.38 21.94 21.56 20.01 18.26 17.76 16.43 17.83 16.65 15.81 14.93 13.98 11.78 11.31 11.12 11.61 11.37 11.27 12.34
11.90 7.46 5.75 4.79 1.29 4.52 21.96 20.90 15.81 21.31 25.73 25.09 24.62 24.25 22.82 24.38 25.38 25.64 26.11 25.55 24.63 23.31 22.39 22.17 19.33 19.56 19.25 18.61 16.36 14.41 13.18 15.24 13.78 12.46 10.84 8.59 7.14 6.91 7.73 5.77 6.23 6.42 6.24 5.80
9.49 15.81 9.59 13.39 11.62 22.93 23.12 23.64 26.35 27.07 24.49 25.48 24.96 25.74 25.93 24.61 24.21 24.70 24.29 23.08 22.45 20.16 20.88 19.09 14.92 15.53 15.71 15.15 13.11 10.38 11.56 11.37 9.87 6.30 4.07 3.59 4.21 4.56 4.66 3.16 3.13 3.06 3.72 3.25
20.24 22.59 15.52 16.64 21.00 22.99 25.60 26.99 27.39 26.92 26.27 26.62 26.40 25.57 24.80 24.20 24.89 24.21 22.49 22.34 20.73 18.84 17.48 15.54 12.61 11.61 10.88 9.73 11.14 6.77 8.90 8.48 4.23 1.89 2.29 3.19 2.63 2.32 2.94 4.07 4.16 3.00 2.60 2.45
20.50 20.54 17.94 18.31 22.41 24.26 25.71 26.79 27.61 27.79 28.22 27.58 27.59 26.17 26.04 24.35 22.51 22.23 20.27 17.51 17.75 16.58 14.98 12.77 10.40 9.97 8.45 8.55 6.93 3.81 5.90 3.28 1.82 1.88 2.46 2.18 2.16 1.46 1.72 2.93 2.91 3.80 5.64 6.51
24.27 21.66 18.53 16.99 24.35 23.71 24.72 27.19 26.93 25.73 25.49 25.35 24.57 23.18 22.05 22.26 20.51 18.49 16.17 15.64 13.70 11.85 10.42 8.85 8.17 6.44 4.87 4.16 3.61 3.16 0.48 -0.10 0.67 1.37 1.34 1.02 1.09 1.07 1.60 1.30 1.69 8.84 11.69 13.56

GFSCGP_sfc_wetblb_042.txt.gz
Wetbulb
39.29 34.91 32.46 35.20 36.39 35.78 33.71 32.28 32.30 34.85 39.46 36.06 36.26 36.12 39.38 39.34 37.35 35.87 35.63 35.28 35.44 35.65 37.39 37.75 37.75 37.52 37.68 37.97 38.70 39.34 40.11 40.92 43.39 44.77 46.99 48.51 48.59 49.92 52.80 53.18 54.30 55.89 56.40 55.54
35.83 32.90 38.81 38.71 37.89 36.22 34.84 32.56 32.22 36.01 38.52 36.03 35.00 35.77 34.47 36.81 36.24 36.10 35.17 34.26 34.62 34.90 35.17 36.11 35.98 35.72 35.73 35.83 37.10 37.89 38.68 39.19 40.31 42.40 42.47 43.61 43.43 42.64 42.87 44.70 49.03 50.74 52.74 53.65
34.23 37.91 40.61 39.27 37.58 36.46 35.16 33.44 32.75 34.80 35.11 34.48 32.20 32.14 32.96 35.68 36.18 36.25 35.29 34.90 34.67 33.96 33.88 34.18 34.53 34.22 34.51 33.89 34.31 36.46 37.22 38.17 38.43 39.71 41.09 41.20 41.27 40.74 40.89 41.70 41.88 44.10 46.27 47.32
36.30 40.01 39.18 36.64 36.53 37.42 32.98 37.15 36.21 34.15 30.67 27.08 31.65 25.00 31.15 33.60 32.97 33.31 32.79 31.67 31.91 32.64 33.79 34.23 33.67 33.27 33.38 33.14 34.04 35.01 35.98 36.51 37.56 37.92 37.77 37.01 36.41 35.78 36.44 37.69 38.47 40.11 40.81 40.74
36.70 35.75 35.52 35.34 37.03 37.75 35.12 35.78 33.99 32.50 29.09 27.19 27.31 25.37 29.17 32.80 30.67 30.59 31.03 31.89 31.86 32.47 32.61 32.52 32.54 33.37 33.09 32.89 32.38 32.75 34.52 34.92 35.51 35.86 36.29 35.74 34.92 35.09 35.35 35.85 35.89 36.55 37.60 37.66
36.40 37.56 37.01 37.57 37.61 36.95 36.96 34.19 33.37 29.78 28.12 22.67 27.52 27.96 28.08 30.48 32.11 30.70 31.40 31.64 32.15 31.76 31.74 32.12 32.98 32.81 31.56 31.03 30.91 31.39 32.38 32.92 33.85 34.05 34.04 33.66 33.00 32.77 31.96 32.01 32.89 33.66 34.58 34.69
33.99 35.06 36.27 37.93 34.94 35.13 34.07 30.83 24.94 22.99 21.19 23.02 30.29 26.33 29.91 31.97 33.13 33.09 31.08 30.58 30.57 30.77 30.47 30.63 30.53 30.44 30.69 30.14 29.89 31.77 31.11 30.86 31.87 32.15 32.60 32.37 31.88 31.82 30.66 30.43 30.11 30.50 31.14 31.57
31.12 29.65 35.14 37.08 36.43 34.82 31.79 31.33 24.65 15.61 19.72 22.71 29.36 26.83 29.93 31.84 32.88 32.88 32.33 31.31 31.10 30.40 30.60 30.25 30.44 30.41 30.10 30.21 29.35 29.37 29.62 29.65 30.10 30.35 30.27 31.12 31.97 31.56 30.91 30.07 29.97 29.58 29.80 30.60
30.92 31.09 33.89 34.69 34.53 36.64 31.57 29.13 32.67 27.03 27.34 26.30 26.79 27.37 31.49 31.67 30.19 29.97 29.68 29.92 29.80 30.04 30.23 30.31 30.13 29.78 29.84 29.27 28.86 28.75 28.84 29.22 29.47 29.66 29.60 29.75 31.85 31.64 31.12 31.05 31.28 30.36 30.23 31.44
35.20 28.98 35.21 34.32 35.73 33.41 32.69 34.91 27.26 26.37 13.43 18.90 23.49 25.46 26.14 28.01 28.15 29.17 28.52 28.96 29.83 30.58 30.46 29.84 29.53 29.22 29.05 28.80 28.51 28.60 28.79 28.80 29.46 29.45 29.96 29.50 28.89 30.34 29.83 28.97 29.35 29.61 29.73 29.62
36.23 32.15 30.65 33.77 32.01 31.45 28.98 28.44 28.85 30.89 26.07 16.95 14.12 22.97 30.59 31.39 30.48 28.79 29.22 30.36 30.49 30.24 29.97 29.30 29.06 28.74 29.17 29.07 29.77 29.27 29.24 30.08 29.79 29.58 29.85 29.04 28.99 28.55 28.93 26.86 27.28 26.67 27.49 28.74
36.76 32.78 24.25 29.91 33.20 34.01 32.74 30.55 30.11 26.25 22.39 23.84 24.68 25.02 34.06 33.67 32.02 31.21 30.98 31.85 31.26 31.35 29.90 28.72 28.78 28.73 28.21 27.78 27.66 27.34 28.26 28.06 27.82 29.10 29.55 28.97 28.04 28.30 26.45 26.12 26.54 26.71 26.37 27.36
37.13 28.42 16.49 23.00 27.91 30.63 29.75 30.92 31.33 30.93 27.66 19.70 23.12 23.15 32.08 30.93 30.30 30.98 31.37 31.96 31.07 29.60 27.29 27.23 26.99 26.85 26.84 26.61 26.55 26.04 26.51 27.13 27.92 27.07 26.52 26.32 25.91 26.08 26.57 26.42 26.01 26.08 25.88 26.12
38.85 28.31 24.30 23.15 23.23 27.79 24.66 28.01 29.25 25.38 17.03 17.72 24.04 23.60 27.91 29.48 30.11 29.51 29.20 30.61 29.20 26.85 26.39 26.00 25.50 25.82 25.99 26.14 25.55 24.88 25.47 26.05 26.13 25.84 25.34 24.82 24.31 24.61 24.69 25.48 24.97 24.66 24.89 24.44
34.33 24.34 29.51 27.18 27.94 26.47 25.92 25.96 27.21 25.45 25.26 19.87 24.36 22.93 28.02 28.39 26.78 28.21 28.39 28.04 27.21 25.83 24.76 24.32 24.55 24.59 24.92 25.26 25.04 25.40 25.38 25.45 25.43 24.62 24.45 24.23 24.64 24.73 24.20 23.85 23.83 23.74 23.91 23.95
30.75 19.63 23.29 16.66 25.62 27.24 23.75 25.57 24.80 26.34 26.66 25.24 25.90 24.73 31.49 28.59 26.24 24.11 24.79 27.13 26.48 25.89 25.81 25.53 25.56 25.58 25.60 25.67 25.46 26.01 24.93 25.55 25.32 23.46 23.41 24.09 23.84 23.89 23.45 23.46 23.30 23.00 22.61 22.20
26.87 20.79 16.38 15.97 20.89 18.06 11.87 17.99 23.31 24.76 24.55 23.44 19.12 23.97 20.10 22.77 25.47 25.03 24.66 24.08 24.57 25.20 25.49 25.62 26.04 26.17 26.43 25.79 26.21 24.70 24.29 23.89 23.31 23.10 21.76 22.05 22.03 21.03 21.46 20.92 19.54 18.73 17.84 18.15
25.67 22.22 20.72 14.21 8.49 1.92 20.19 21.80 22.68 22.16 24.08 21.05 19.54 16.85 19.81 21.90 22.62 23.48 23.86 24.19 25.10 25.51 26.03 26.16 25.71 24.89 25.35 24.48 23.66 23.71 23.57 22.59 22.04 19.59 17.59 18.89 19.35 16.77 17.50 16.37 15.48 14.95 15.07 14.35
28.47 24.73 16.89 14.14 5.12 13.02 21.26 21.59 19.93 18.91 17.19 18.18 17.75 18.56 22.94 22.16 21.10 20.27 24.69 24.82 25.19 25.91 26.65 26.18 25.93 24.60 23.24 22.54 22.64 21.70 20.50 20.34 19.33 18.41 18.06 17.29 14.76 12.46 13.26 10.99 11.81 12.02 10.83 10.17
24.17 25.35 19.21 0.17 1.04 2.12 15.26 17.17 20.96 21.58 9.36 11.75 12.08 13.90 18.47 20.45 11.31 17.82 23.54 26.15 26.02 26.37 26.16 25.97 24.91 23.48 22.26 20.67 20.45 18.83 18.02 16.71 15.61 16.36 15.82 14.45 12.90 6.78 8.51 9.01 7.83 8.27 7.51 8.28
7.31 8.00 17.38 14.77 10.54 8.18 18.89 21.54 22.48 7.84 13.70 14.93 15.37 19.62 19.44 17.87 21.53 23.92 25.29 24.97 26.12 26.45 25.71 23.92 22.46 22.00 19.98 18.99 17.54 16.03 15.27 13.59 14.66 12.89 12.11 11.40 10.10 7.40 6.30 5.78 6.12 5.08 4.40 5.55
11.05 7.57 5.60 5.97 5.89 4.18 19.03 19.12 15.85 20.21 23.33 22.42 23.01 23.61 21.86 23.41 24.75 24.02 24.71 24.66 25.05 23.84 22.84 22.21 19.48 18.43 17.40 16.65 14.51 13.00 11.56 13.33 10.92 9.95 8.36 5.36 2.99 3.32 5.37 2.23 2.81 2.81 2.20 1.34
11.16 14.05 8.92 12.28 11.52 21.08 20.75 23.38 26.66 25.75 23.75 24.76 24.19 25.09 24.54 23.88 23.50 24.20 23.96 23.72 23.89 22.46 21.83 18.69 16.32 16.26 15.49 14.03 12.55 8.80 10.31 9.71 8.47 -0.52 -2.08 -1.62 0.93 2.61 3.06 0.77 1.43 1.14 1.25 0.73
18.57 19.51 14.83 14.22 18.87 20.68 24.22 27.08 26.87 26.05 25.06 25.96 25.99 25.49 24.22 23.04 23.84 24.03 23.46 23.51 22.79 19.75 17.58 14.56 12.92 12.63 12.17 10.92 10.86 6.99 7.10 7.37 -5.05 -9.50 -3.87 -0.38 0.35 1.22 1.68 2.93 2.77 0.95 0.23 0.66
19.12 18.61 14.95 15.24 21.54 22.15 23.08 23.92 24.95 25.10 25.17 25.02 24.82 24.68 24.79 23.47 23.81 23.81 23.17 21.26 20.70 17.86 14.94 13.01 11.44 10.91 10.05 9.60 7.62 5.64 5.17 1.71 -3.70 -3.69 -0.71 0.04 0.61 -1.04 1.19 2.79 2.44 3.10 5.31 6.33
22.06 20.81 17.44 15.32 24.32 22.76 23.46 25.49 25.86 24.50 24.18 24.34 24.05 23.38 23.35 23.59 23.24 21.92 20.40 18.84 15.79 13.16 11.06 9.57 8.93 7.92 7.77 5.81 4.85 1.83 -1.47 -2.47 -6.83 -3.55 -0.53 0.02 0.55 0.92 1.99 1.52 1.35 8.64 11.33 13.06

GFSCGP_sfc_wetblb_045.txt.gz
Wetbulb
38.09 33.65 31.86 34.74 35.97 34.17 33.05 30.94 30.82 33.47 37.87 35.37 35.34 35.74 36.25 36.31 34.69 33.22 32.71 32.68 32.84 33.15 35.16 35.70 35.48 35.25 35.66 36.35 37.09 37.62 38.52 39.17 41.33 41.93 43.87 46.00 43.08 44.46 45.04 47.26 47.80 49.97 52.13 54.35
35.01 31.95 37.80 37.47 36.20 34.90 33.03 30.89 31.27 34.97 36.84 35.72 34.60 34.84 33.42 34.51 33.40 33.31 32.30 31.84 32.21 32.59 33.00 34.09 33.86 33.68 33.50 33.91 35.55 36.35 37.00 37.51 38.67 40.09 40.13 41.29 40.22 40.29 42.46 42.61 42.73 43.28 44.63 46.19
33.96 37.33 39.28 37.98 35.24 34.46 33.01 31.64 31.53 33.65 33.85 33.08 31.31 31.62 31.94 33.11 33.51 33.60 32.96 32.93 32.86 32.03 31.86 31.98 32.11 31.41 31.92 32.02 32.70 34.77 35.66 36.42 36.95 38.47 39.09 38.88 38.81 37.79 37.81 37.82 38.80 39.09 39.36 39.49
34.96 38.52 38.04 35.45 35.11 36.53 31.59 36.61 35.06 33.33 29.90 27.05 30.74 24.60 29.97 31.33 30.44 30.82 30.91 30.04 30.48 31.00 31.92 31.89 31.11 30.65 30.53 30.72 32.11 33.64 34.27 34.67 35.79 36.47 36.22 35.18 33.94 32.84 33.48 34.79 35.20 35.63 35.71 35.21
36.03 35.55 35.13 34.66 36.05 37.66 35.08 35.35 33.65 31.52 28.54 26.79 26.64 25.03 27.70 30.45 28.07 28.44 29.41 30.44 30.32 30.70 30.68 30.26 30.11 30.75 30.20 29.92 29.18 30.87 32.77 33.11 33.48 33.61 33.57 32.65 31.07 31.46 30.98 31.57 31.43 32.24 32.94 33.00
36.74 36.87 36.70 37.91 36.16 37.04 36.64 33.50 31.86 28.87 27.46 22.45 27.38 27.57 26.88 28.47 30.17 29.20 29.94 30.13 30.83 30.34 30.10 30.24 30.69 30.54 29.08 28.87 28.86 29.31 30.62 30.90 31.96 32.10 31.67 30.65 29.40 29.15 28.98 28.97 28.94 29.73 30.59 30.98
32.37 33.86 35.19 37.14 34.43 34.17 33.72 31.48 25.84 21.88 20.69 22.66 26.93 25.34 28.55 30.59 31.00 31.98 30.13 29.42 29.74 29.94 29.18 29.27 28.95 28.71 28.54 27.96 28.20 29.85 29.21 28.76 29.37 30.21 30.34 29.99 28.88 28.09 27.83 27.77 27.76 27.93 28.37 28.54
30.02 29.49 34.70 36.42 35.46 33.50 31.36 32.10 24.85 14.71 18.85 22.37 28.45 25.98 30.40 30.11 30.98 31.98 31.27 30.12 29.60 29.04 29.60 29.29 29.34 28.60 28.03 27.78 27.36 27.72 28.24 27.92 28.11 28.01 28.43 29.26 29.79 29.28 29.00 28.63 28.31 28.28 29.11 29.92
30.54 30.95 33.33 34.16 33.78 35.64 30.51 28.53 31.57 26.05 16.35 21.80 25.70 28.36 30.04 29.80 28.76 29.06 28.87 28.85 28.54 28.95 29.06 29.23 28.91 28.41 27.71 26.82 26.71 26.97 27.29 27.51 27.78 27.69 27.50 27.64 28.54 29.24 29.66 29.44 29.89 29.64 29.55 30.36
34.71 28.91 33.53 33.29 35.05 32.53 32.38 34.22 27.68 25.89 13.72 12.68 22.45 24.83 26.66 26.83 27.25 27.92 27.51 28.22 28.91 29.60 29.21 28.71 28.07 28.07 27.71 27.19 26.60 26.83 27.11 26.96 27.19 27.56 27.35 27.12 26.69 26.96 26.83 26.41 26.29 26.30 26.92 27.61
35.67 32.28 29.64 32.91 31.34 30.81 29.47 28.32 28.58 29.42 23.80 15.37 12.97 21.49 29.51 30.28 30.00 28.24 28.78 29.51 29.78 29.51 29.03 28.24 28.04 27.78 27.63 27.36 27.24 27.19 26.88 26.84 26.33 26.79 26.91 26.37 26.53 26.43 25.91 25.64 25.81 25.19 25.64 26.44
36.51 32.08 24.50 29.60 31.42 31.86 30.73 30.38 29.67 26.09 21.92 22.96 23.37 24.97 32.08 31.76 31.95 30.69 29.77 31.14 30.15 30.16 29.11 27.71 27.40 27.05 26.91 26.69 26.27 26.15 26.43 26.20 26.39 26.59 25.95 25.85 25.56 25.39 25.12 24.96 24.89 25.22 24.55 25.39
36.89 28.88 19.01 24.11 27.80 29.22 28.56 30.30 29.76 28.87 25.61 20.20 19.32 23.05 31.16 30.03 29.56 30.03 30.01 30.18 30.76 30.40 28.12 26.72 26.15 25.91 25.46 25.38 25.50 25.33 25.65 26.13 26.44 26.03 25.81 25.77 25.29 24.65 24.41 24.41 24.87 24.83 24.24 24.37
39.02 28.68 25.70 25.78 25.34 28.08 26.00 28.93 29.61 24.97 18.16 20.55 25.69 25.50 26.87 28.86 29.47 29.14 29.98 29.75 30.23 29.58 26.98 25.48 25.12 25.38 25.28 25.49 24.79 24.14 24.67 25.27 25.73 25.55 24.84 24.56 24.05 24.28 24.11 24.46 24.18 23.78 23.79 23.16
34.80 26.24 26.31 26.64 26.74 26.14 26.43 25.90 27.70 25.20 26.16 23.09 25.45 25.85 27.99 30.11 29.98 30.04 29.52 27.78 29.25 26.51 25.00 25.48 24.75 24.30 24.33 24.30 24.06 24.25 23.91 24.21 24.05 23.66 23.98 24.04 24.36 24.26 23.63 23.12 23.04 22.90 22.76 22.20
30.31 21.85 24.84 25.28 25.92 27.50 26.06 26.51 27.31 27.82 27.64 26.05 26.65 26.85 32.43 28.36 28.97 27.36 27.47 26.93 28.62 26.46 24.95 24.59 25.49 25.26 25.05 25.11 24.49 25.12 23.81 24.26 24.30 23.38 23.45 23.67 23.27 22.94 22.48 21.95 20.50 19.37 18.88 18.09
27.01 24.01 22.14 23.91 20.62 19.56 17.57 20.69 24.85 25.66 26.66 27.72 23.86 28.26 20.93 23.80 25.45 25.69 25.47 24.82 26.67 26.27 25.93 25.07 25.00 25.08 25.69 25.37 25.90 23.97 23.69 24.05 23.01 22.69 21.13 20.92 20.39 18.54 18.30 17.31 16.35 15.83 14.98 15.34
27.08 25.85 24.03 17.63 14.77 12.58 23.18 21.56 23.15 23.20 24.53 21.25 20.92 18.50 21.09 23.43 24.34 24.91 24.94 24.48 24.33 24.96 25.07 25.22 24.92 24.51 25.29 24.72 24.23 23.60 23.35 22.60 21.20 18.37 16.39 17.47 16.37 13.97 14.84 13.99 13.19 12.81 12.97 12.08
27.89 25.38 16.00 18.74 12.42 18.32 23.00 21.59 19.47 19.06 19.40 20.97 21.92 20.63 22.94 22.18 20.45 20.58 24.37 24.00 24.29 24.77 25.64 25.83 26.15 25.11 23.80 23.41 23.08 22.21 20.83 20.18 18.40 17.42 17.20 15.13 12.83 10.02 11.43 8.45 10.11 10.48 9.49 8.93
26.32 27.84 25.73 9.32 10.54 9.15 17.63 17.55 21.53 22.31 10.76 14.01 16.10 16.42 19.06 20.09 12.56 19.38 22.62 24.77 24.87 25.83 26.07 26.03 25.69 24.46 22.93 21.78 21.14 19.21 17.57 15.89 14.85 15.89 14.84 13.30 12.03 5.23 5.25 7.96 7.00 7.60 6.37 7.77
13.10 17.20 19.63 14.49 15.83 12.57 19.36 21.72 22.71 9.70 14.35 15.71 16.14 19.54 18.60 17.26 21.07 23.45 24.53 23.74 25.64 26.04 25.98 25.15 23.92 23.06 21.21 19.34 17.70 16.40 14.93 13.32 14.34 12.34 11.98 11.21 9.52 4.63 4.44 4.25 5.17 4.13 3.54 5.13
12.62 11.10 11.62 10.41 12.50 7.45 19.38 19.92 17.38 21.36 22.54 21.48 20.29 22.16 20.97 22.69 24.27 24.21 24.40 24.14 24.58 24.26 24.25 24.91 20.72 19.99 18.09 17.43 15.79 14.04 11.93 13.34 10.86 10.94 9.32 6.26 2.67 2.07 3.73 -2.92 0.66 0.59 0.70 0.42
12.52 16.71 11.80 14.33 12.88 20.63 20.45 22.80 25.79 25.38 23.80 23.81 23.52 24.53 24.26 23.63 23.26 24.31 23.59 23.45 24.16 24.13 23.20 20.55 18.93 16.77 14.81 14.00 12.32 10.36 11.01 10.26 9.35 5.96 -0.49 -1.30 0.84 1.33 1.48 -3.49 -0.17 0.07 -0.11 -0.30
17.88 18.70 14.26 15.07 18.97 20.08 22.83 24.62 25.36 25.51 24.54 25.77 25.95 25.47 23.89 22.94 23.74 23.67 22.73 22.97 22.75 21.32 20.31 17.06 15.56 14.72 12.16 9.95 11.52 7.60 8.55 8.38 3.25 2.40 0.06 0.56 -1.10 -1.38 -1.64 1.97 2.28 0.34 -0.58 0.10
19.01 18.74 14.97 14.75 20.41 21.32 23.04 24.49 25.94 26.06 25.56 24.47 24.45 24.69 24.33 22.99 23.21 23.26 22.92 21.69 22.11 20.56 16.93 16.24 15.60 13.71 10.89 9.12 6.47 3.96 5.39 4.81 2.44 0.21 1.05 -0.96 -1.75 -3.05 -0.28 1.67 1.51 2.67 5.01 6.69
20.54 17.89 16.22 13.94 22.88 22.33 23.06 24.56 25.40 24.45 24.35 24.02 23.49 22.65 22.96 23.26 23.17 22.19 21.19 20.93 18.75 16.62 13.25 12.61 10.75 9.18 6.50 3.84 2.54 1.65 1.92 -0.69 -0.68 0.19 0.45 -0.68 -0.30 -0.55 0.79 0.73 0.79 8.00 11.63 13.63

GFSCGP_sfc_wetblb_048.txt.gz
Wetbulb
36.77 33.23 31.96 34.25 34.87 33.38 32.32 30.37 30.44 32.12 36.22 33.90 34.88 34.69 34.11 34.06 32.24 30.82 30.70 30.72 30.99 31.47 33.32 33.95 33.77 33.38 33.79 34.68 35.68 36.43 37.27 38.47 41.54 41.56 42.58 42.43 40.97 42.14 41.66 41.50 41.22 41.60 43.15 46.11
34.03 30.81 36.38 36.33 35.19 33.95 31.71 29.56 29.99 33.82 35.58 35.11 33.49 33.45 31.74 32.46 31.15 31.31 30.59 30.18 30.63 31.08 31.47 32.38 32.21 32.08 31.95 32.31 33.72 34.73 35.68 36.37 37.96 38.76 38.97 38.77 38.20 38.70 39.38 39.61 37.96 38.49 39.31 40.09
33.32 36.42 38.28 36.97 33.78 32.79 31.25 30.20 30.38 32.90 33.12 32.08 30.29 30.53 30.45 30.85 31.67 32.03 31.48 31.37 31.41 30.53 30.06 29.90 30.02 29.52 29.76 30.49 30.82 32.94 33.97 34.76 35.66 36.92 37.27 36.99 36.45 35.06 34.33 33.63 33.36 33.36 34.23 34.95
33.97 37.70 37.43 34.02 33.46 34.79 30.07 35.49 34.40 33.06 29.94 26.79 29.96 24.92 28.68 29.67 29.04 29.89 30.00 29.17 29.39 29.39 29.85 29.74 28.95 28.45 28.25 28.54 29.50 31.26 32.40 32.80 33.46 33.90 33.58 31.93 30.69 29.41 29.94 30.64 31.23 31.55 32.02 32.05
35.97 35.20 34.32 33.86 35.15 36.89 34.19 35.06 33.27 30.49 27.73 25.99 26.23 24.54 27.15 28.90 26.80 27.78 28.51 29.26 29.16 29.68 29.37 28.52 28.16 28.76 28.43 28.32 27.59 28.52 30.70 30.88 31.08 30.93 30.64 30.20 28.81 28.77 28.09 28.60 29.07 29.43 29.93 30.43
36.26 36.13 36.54 36.53 35.27 36.47 35.78 33.52 31.53 28.40 26.79 22.34 27.60 27.48 26.05 27.25 29.23 28.22 28.99 29.31 30.01 29.56 28.95 28.52 28.72 28.50 27.47 27.48 27.57 27.51 29.20 29.20 29.94 29.94 29.33 28.49 27.58 27.24 27.66 27.30 27.43 27.66 28.14 28.86
31.91 33.47 34.40 36.39 33.11 33.29 33.53 31.11 25.57 22.39 21.16 23.03 26.02 24.17 28.36 30.37 30.35 31.05 29.87 29.26 29.22 29.22 28.10 27.87 27.22 26.51 26.55 26.63 27.04 27.87 27.66 27.08 28.10 28.64 28.35 27.82 27.04 26.81 26.59 26.57 26.68 26.90 27.17 27.10
29.07 28.62 34.05 35.92 34.27 32.21 31.19 31.25 25.66 16.98 17.62 21.27 27.37 25.08 30.48 30.14 30.08 31.36 31.95 30.43 29.19 28.50 28.57 28.22 27.85 26.77 26.12 26.48 26.35 26.51 26.40 26.00 26.35 26.80 27.14 27.54 27.89 27.54 27.41 26.90 26.52 26.38 27.31 28.82
29.18 30.50 32.79 34.28 34.13 34.42 29.79 28.43 31.18 24.82 14.88 19.42 25.11 27.66 29.34 28.92 27.63 28.00 28.37 28.17 27.87 28.14 28.25 28.36 28.14 27.07 25.77 25.40 25.67 26.16 26.11 26.17 26.05 25.90 25.66 25.55 26.02 25.95 25.60 25.62 25.93 25.54 25.76 27.98
34.66 29.06 32.27 31.83 33.92 32.42 31.94 33.68 27.66 25.24 14.62 12.91 21.73 23.79 25.34 27.07 26.75 27.06 26.88 27.44 27.93 28.34 28.22 28.09 27.76 27.18 26.38 25.63 25.23 25.43 25.81 25.70 25.80 25.65 25.78 25.78 25.29 25.46 25.17 24.69 24.38 24.30 24.45 24.81
35.08 33.09 29.63 32.27 30.40 29.64 29.20 28.76 27.95 28.44 23.35 15.47 12.22 20.70 29.35 30.28 28.90 27.56 28.39 29.22 29.26 29.10 28.48 27.89 27.47 27.35 26.83 25.85 25.41 25.23 25.26 25.26 25.34 25.73 25.49 25.20 24.89 24.74 24.73 24.33 23.93 24.05 24.11 24.03
36.31 32.39 25.33 29.04 30.53 30.98 30.09 30.02 29.77 25.81 21.81 21.61 21.79 24.80 30.45 30.62 30.77 30.61 30.06 30.43 29.65 29.53 29.03 27.55 27.29 26.51 25.59 25.43 25.17 25.04 25.49 25.25 25.80 25.54 25.26 25.04 24.90 24.59 24.11 23.77 23.82 23.88 23.31 23.67
36.71 30.23 19.62 24.39 27.80 29.07 28.50 29.80 29.96 28.85 25.95 20.59 18.83 22.43 30.48 29.62 29.54 29.49 28.73 29.30 29.59 29.85 28.26 27.30 26.25 25.22 25.32 25.15 25.22 25.20 25.36 25.32 25.84 25.34 24.80 24.80 24.52 24.05 23.54 23.54 23.85 23.72 22.96 22.64
39.90 31.02 26.80 26.08 26.35 29.22 27.32 29.02 29.35 27.22 20.39 21.10 26.64 27.65 27.82 29.09 29.74 28.79 28.83 29.39 29.34 29.77 28.90 26.58 25.29 25.86 26.11 25.35 24.73 24.09 24.12 24.99 25.33 25.04 24.46 24.41 24.01 23.66 23.08 23.27 22.78 22.60 22.00 20.80
36.12 29.01 26.83 25.85 27.00 26.52 27.13 27.88 28.99 26.85 30.04 25.79 28.95 27.92 29.02 31.45 31.29 30.18 29.44 28.88 28.16 28.50 27.65 26.04 26.20 25.87 24.70 24.58 24.23 24.06 23.54 23.96 23.62 23.36 23.51 23.61 24.10 23.40 22.90 22.22 21.70 20.48 19.85 18.77
31.29 24.66 25.35 19.39 26.45 26.65 25.21 27.21 27.33 29.25 26.76 26.77 26.10 26.55 30.39 29.87 30.11 28.88 29.39 28.89 28.22 28.62 27.91 26.19 26.32 26.01 25.92 25.73 24.50 24.97 23.21 23.45 23.41 22.57 23.39 23.84 22.79 22.14 21.80 20.41 19.00 17.96 17.39 16.55
30.11 26.01 21.60 21.77 21.56 23.36 24.61 25.75 26.73 27.11 27.13 28.06 24.71 30.25 23.29 25.68 27.59 28.39 28.24 27.41 27.23 28.26 28.38 25.47 25.35 25.92 26.10 24.85 25.63 23.60 23.64 23.42 23.04 23.20 22.12 20.96 20.12 18.76 18.14 16.73 15.76 14.84 13.75 14.08
26.48 26.75 26.64 17.01 18.45 17.12 23.91 20.61 23.78 27.77 28.28 27.46 22.00 21.68 24.30 25.96 25.36 25.61 26.12 26.10 26.38 26.40 26.94 26.05 24.51 23.85 24.86 24.76 24.39 23.96 23.64 22.77 22.22 19.49 16.89 17.93 15.96 13.83 14.64 13.36 12.38 11.94 11.79 10.99
28.79 27.35 19.43 17.93 16.58 22.30 22.09 19.73 19.69 21.04 20.80 23.59 24.24 24.79 24.71 23.49 22.17 20.97 24.53 24.08 24.95 24.59 25.04 24.85 25.21 24.27 24.02 23.71 23.49 22.64 21.45 21.32 19.25 17.49 16.73 14.60 12.59 9.94 10.62 6.97 9.50 9.43 8.75 8.32
27.37 28.04 28.64 14.95 16.34 15.74 18.60 18.01 21.96 24.12 17.20 20.42 22.96 22.46 20.64 20.21 12.27 18.09 22.78 24.46 24.54 24.85 25.15 25.16 25.14 24.64 23.91 23.25 21.86 20.42 18.82 17.42 15.72 16.42 16.06 13.35 11.45 5.57 4.70 7.47 5.77 6.81 4.54 7.57
19.84 20.29 23.53 17.45 20.38 18.23 20.80 21.59 22.95 13.43 17.60 15.38 17.91 20.41 19.59 18.30 20.20 23.45 24.75 23.56 24.64 24.93 25.05 24.89 24.14 23.99 23.43 20.39 19.39 18.73 16.57 15.35 15.08 13.18 11.83 10.96 8.85 4.42 4.11 2.36 3.74 1.34 1.13 4.72
17.30 17.73 14.76 16.73 16.14 15.21 20.76 20.92 19.05 22.50 22.28 20.79 19.88 21.33 20.81 23.00 24.16 23.62 24.27 24.29 23.78 23.76 24.32 24.51 21.49 21.43 19.50 19.12 18.42 16.86 15.18 13.87 11.18 10.22 9.56 6.87 3.02 3.33 5.48 -5.75 -2.54 -2.56 -4.01 -3.29
14.91 18.78 15.14 19.44 18.98 21.02 22.65 23.83 25.72 26.01 23.08 22.81 22.76 23.68 23.75 23.10 22.67 23.53 22.93 23.27 23.51 22.05 23.20 20.06 20.27 18.98 15.17 15.96 15.62 14.05 12.43 10.89 8.62 3.58 1.87 2.00 3.05 3.54 3.47 -4.48 0.65 -0.80 -4.92 -4.12
17.83 19.47 16.61 17.47 19.41 20.65 23.14 24.61 24.68 25.01 25.29 25.85 25.15 24.02 23.22 22.71 23.30 23.33 22.22 22.70 22.73 20.95 21.35 19.03 16.31 16.73 15.82 11.80 13.00 9.58 9.80 8.79 -0.98 -3.36 0.58 3.71 3.91 3.14 2.77 3.28 2.71 -3.16 -4.60 -1.87
19.48 19.29 15.12 15.75 19.92 21.23 22.98 23.81 25.48 25.14 25.04 23.80 24.26 24.84 24.13 22.68 22.35 22.69 22.00 21.33 21.80 21.57 18.03 16.76 17.12 17.42 15.38 11.10 7.24 4.15 5.50 2.67 -0.73 0.13 3.46 3.67 2.94 0.82 1.48 2.46 1.74 1.82 2.88 3.92
19.93 17.67 16.19 13.91 22.76 22.73 23.29 24.97 25.73 24.20 24.11 24.15 23.43 21.99 22.63 23.29 22.94 21.91 21.39 21.58 19.57 18.05 13.89 12.99 11.90 10.43 7.19 6.51 4.16 0.16 0.08 -0.36 -1.69 0.69 3.62 2.82 2.18 1.51 0.85 0.42 0.23 7.28 11.65 14.28